Observation data for Endee on 01/19/2019      Previous  Date  Next       Current Mesonet Observations  Soil Data  Daily Summary Page  Observations in Plain Language
KEN1 190600Z 33013KT 01/M02 A3016 RMK A01 T00091018  RH  082%=      5-min Rain = 0
KEN1 190601Z 34011KT 01/M02 A3016 RMK A01 T00091019  RH  082%=      5-min Rain = 0
KEN1 190602Z 33012KT 01/M02 A3016 RMK A01 T00091019  RH  082%=      5-min Rain = 0
KEN1 190603Z 33012KT 01/M02 A3016 RMK A01 T00091019  RH  081%=      5-min Rain = 0
KEN1 190604Z 33012KT 01/M02 A3016 RMK A01 T00091020  RH  081%=      5-min Rain = 0
KEN1 190605Z 33012KT 01/M02 A3016 RMK A01 T00091019  RH  082%=      5-min Rain = 0
KEN1 190606Z 33012KT 01/M02 A3016 RMK A01 T00091019  RH  082%=      5-min Rain = 0
KEN1 190607Z 33012KT 01/M02 A3016 RMK A01 T00091019  RH  081%=      5-min Rain = 0
KEN1 190608Z 33012KT 01/M02 A3017 RMK A01 T00091020  RH  081%=      5-min Rain = 0
KEN1 190609Z 33012KT 01/M02 A3017 RMK A01 T00091020  RH  081%=      5-min Rain = 0
KEN1 190610Z 33012KT 01/M02 A3017 RMK A01 T00091020  RH  081%=      5-min Rain = 0
KEN1 190611Z 33012KT 01/M02 A3017 RMK A01 T00091020  RH  081%=      5-min Rain = 0
KEN1 190612Z 33011KT 01/M02 A3017 RMK A01 T00091020  RH  081%=      5-min Rain = 0
KEN1 190613Z 33011KT 01/M02 A3017 RMK A01 T00091020  RH  081%=      5-min Rain = 0
KEN1 190614Z 33012KT 01/M02 A3017 RMK A01 T00081020  RH  081%=      5-min Rain = 0
KEN1 190615Z 33011KT 01/M02 A3017 RMK A01 T00081020  RH  081%=      5-min Rain = 0
KEN1 190616Z 33010KT 01/M02 A3017 RMK A01 T00081020  RH  082%=      5-min Rain = 0
KEN1 190617Z 33010KT 01/M02 A3017 RMK A01 T00071020  RH  082%=      5-min Rain = 0
KEN1 190618Z 33011KT 01/M02 A3017 RMK A01 T00071020  RH  083%=      5-min Rain = 0
KEN1 190619Z 33012KT 01/M02 A3017 RMK A01 T00061020  RH  083%=      5-min Rain = 0
KEN1 190620Z 33012KT 01/M02 A3017 RMK A01 T00071020  RH  083%=      5-min Rain = 0
KEN1 190621Z 33011KT 01/M02 A3017 RMK A01 T00061020  RH  082%=      5-min Rain = 0
KEN1 190622Z 33011KT 01/M02 A3017 RMK A01 T00061020  RH  083%=      5-min Rain = 0
KEN1 190623Z 33011KT 01/M02 A3017 RMK A01 T00061020  RH  083%=      5-min Rain = 0
KEN1 190624Z 33011KT 01/M02 A3017 RMK A01 T00061020  RH  083%=      5-min Rain = 0
KEN1 190625Z 33010KT 01/M02 A3017 RMK A01 T00061020  RH  083%=      5-min Rain = 0
KEN1 190626Z 33010KT 01/M02 A3017 RMK A01 T00061020  RH  083%=      5-min Rain = 0
KEN1 190627Z 33010KT 01/M02 A3017 RMK A01 T00051020  RH  083%=      5-min Rain = 0
KEN1 190628Z 33010KT 01/M02 A3017 RMK A01 T00051020  RH  084%=      5-min Rain = 0
KEN1 190629Z 33010KT 01/M02 A3017 RMK A01 T00051020  RH  084%=      5-min Rain = 0
KEN1 190630Z 33010KT 01/M02 A3017 RMK A01 T00051020  RH  084%=      5-min Rain = 0
KEN1 190631Z 33010KT 01/M02 A3017 RMK A01 T00051020  RH  084%=      5-min Rain = 0
KEN1 190632Z 33009KT 00/M02 A3017 RMK A01 T00041020  RH  084%=      5-min Rain = 0
KEN1 190633Z 33010KT 00/M02 A3017 RMK A01 T00041020  RH  084%=      5-min Rain = 0
KEN1 190634Z 33010KT 00/M02 A3017 RMK A01 T00041020  RH  084%=      5-min Rain = 0
KEN1 190635Z 34010KT 00/M02 A3017 RMK A01 T00041020  RH  084%=      5-min Rain = 0
KEN1 190636Z 34010KT 00/M02 A3017 RMK A01 T00041020  RH  084%=      5-min Rain = 0
KEN1 190637Z 34011KT 00/M02 A3017 RMK A01 T00031020  RH  084%=      5-min Rain = 0
KEN1 190638Z 33010KT 00/M02 A3017 RMK A01 T00031021  RH  084%=      5-min Rain = 0
KEN1 190639Z 34010KT 00/M02 A3017 RMK A01 T00031021  RH  084%=      5-min Rain = 0
KEN1 190640Z 34010KT 00/M02 A3017 RMK A01 T00021021  RH  084%=      5-min Rain = 0
KEN1 190641Z 34010KT 00/M02 A3017 RMK A01 T00021021  RH  085%=      5-min Rain = 0
KEN1 190642Z 34010KT 00/M02 A3017 RMK A01 T00021021  RH  085%=      5-min Rain = 0
KEN1 190643Z 34010KT 00/M02 A3017 RMK A01 T00021021  RH  085%=      5-min Rain = 0
KEN1 190644Z 34011KT 00/M02 A3017 RMK A01 T00021021  RH  085%=      5-min Rain = 0
KEN1 190645Z 34010KT 00/M02 A3017 RMK A01 T00021021  RH  084%=      5-min Rain = 0
KEN1 190646Z 34010KT 00/M02 A3017 RMK A01 T00021021  RH  084%=      5-min Rain = 0
KEN1 190647Z 34010KT 00/M02 A3017 RMK A01 T00031021  RH  084%=      5-min Rain = 0
KEN1 190648Z 34011KT 00/M02 A3017 RMK A01 T00021021  RH  084%=      5-min Rain = 0
KEN1 190649Z 34010KT 00/M02 A3017 RMK A01 T00031021  RH  084%=      5-min Rain = 0
KEN1 190650Z 34010KT 00/M02 A3017 RMK A01 T00031021  RH  084%=      5-min Rain = 0
KEN1 190651Z 34011KT 00/M02 A3017 RMK A01 T00031021  RH  084%=      5-min Rain = 0
KEN1 190652Z 34010KT 00/M02 A3017 RMK A01 T00031021  RH  084%=      5-min Rain = 0
KEN1 190653Z 34011KT 00/M02 A3017 RMK A01 T00031021  RH  084%=      5-min Rain = 0
KEN1 190654Z 35011KT 00/M02 A3017 RMK A01 T00031021  RH  084%=      5-min Rain = 0
KEN1 190655Z 35011KT 00/M02 A3017 RMK A01 T00041021  RH  083%=      5-min Rain = 0
KEN1 190656Z 35011KT 00/M02 A3017 RMK A01 T00041021  RH  083%=      5-min Rain = 0
KEN1 190657Z 35011KT 00/M02 A3017 RMK A01 T00041022  RH  083%=      5-min Rain = 0
KEN1 190658Z 34011KT 00/M02 A3017 RMK A01 T00041022  RH  083%=      5-min Rain = 0
KEN1 190659Z 34011KT 01/M02 A3017 RMK A01 T00051021  RH  083%=      5-min Rain = 0
KEN1 190700Z 34011KT 00/M02 A3017 RMK A01 T00041022  RH  083%=      5-min Rain = 0
KEN1 190701Z 34011KT 01/M02 A3017 RMK A01 T00051022  RH  083%=      5-min Rain = 0
KEN1 190702Z 34010KT 00/M02 A3017 RMK A01 T00041022  RH  083%=      5-min Rain = 0
KEN1 190703Z 34011KT 01/M02 A3017 RMK A01 T00051021  RH  083%=      5-min Rain = 0
KEN1 190704Z 34010KT 00/M02 A3017 RMK A01 T00041022  RH  083%=      5-min Rain = 0
KEN1 190705Z 34010KT 01/M02 A3017 RMK A01 T00051021  RH  083%=      5-min Rain = 0
KEN1 190706Z 34009KT 00/M02 A3018 RMK A01 T00041021  RH  083%=      5-min Rain = 0
KEN1 190707Z 34010KT 00/M02 A3018 RMK A01 T00041021  RH  083%=      5-min Rain = 0
KEN1 190708Z 34009KT 00/M02 A3018 RMK A01 T00041021  RH  083%=      5-min Rain = 0
KEN1 190709Z 33010KT 00/M02 A3018 RMK A01 T00041021  RH  083%=      5-min Rain = 0
KEN1 190710Z 33009KT 00/M02 A3018 RMK A01 T00041021  RH  083%=      5-min Rain = 0
KEN1 190711Z 33009KT 00/M02 A3018 RMK A01 T00031021  RH  084%=      5-min Rain = 0
KEN1 190712Z 33009KT 00/M02 A3018 RMK A01 T00031021  RH  084%=      5-min Rain = 0
KEN1 190713Z 33009KT 00/M02 A3018 RMK A01 T00031021  RH  084%=      5-min Rain = 0
KEN1 190714Z 33010KT 00/M02 A3018 RMK A01 T00031021  RH  084%=      5-min Rain = 0
KEN1 190715Z 33009KT 00/M02 A3018 RMK A01 T00031021  RH  084%=      5-min Rain = 0
KEN1 190716Z 33010KT 00/M02 A3018 RMK A01 T00031022  RH  083%=      5-min Rain = 0
KEN1 190717Z 33009KT 00/M02 A3018 RMK A01 T00041021  RH  083%=      5-min Rain = 0
KEN1 190718Z 33009KT 00/M02 A3018 RMK A01 T00031022  RH  083%=      5-min Rain = 0
KEN1 190719Z 33010KT 00/M02 A3018 RMK A01 T00041022  RH  083%=      5-min Rain = 0
KEN1 190720Z 33009KT 00/M02 A3018 RMK A01 T00041022  RH  083%=      5-min Rain = 0
KEN1 190721Z 33008KT 01/M02 A3017 RMK A01 T00051022  RH  082%=      5-min Rain = 0
KEN1 190722Z 33009KT 01/M02 A3017 RMK A01 T00051022  RH  082%=      5-min Rain = 0
KEN1 190723Z 33009KT 01/M02 A3018 RMK A01 T00051022  RH  082%=      5-min Rain = 0
KEN1 190724Z 32009KT 00/M02 A3018 RMK A01 T00041023  RH  082%=      5-min Rain = 0
KEN1 190725Z 32010KT 00/M02 A3018 RMK A01 T00041023  RH  082%=      5-min Rain = 0
KEN1 190726Z 31009KT 01/M02 A3018 RMK A01 T00051023  RH  082%=      5-min Rain = 0
KEN1 190727Z 31010KT 01/M02 A3018 RMK A01 T00051022  RH  082%=      5-min Rain = 0
KEN1 190728Z 32009KT 01/M02 A3018 RMK A01 T00051022  RH  082%=      5-min Rain = 0
KEN1 190729Z 31009KT 01/M02 A3018 RMK A01 T00051023  RH  082%=      5-min Rain = 0
KEN1 190730Z 31009KT 01/M02 A3018 RMK A01 T00051022  RH  082%=      5-min Rain = 0
KEN1 190731Z 31010KT 00/M02 A3018 RMK A01 T00041023  RH  082%=      5-min Rain = 0
KEN1 190732Z 31010KT 01/M02 A3018 RMK A01 T00051023  RH  082%=      5-min Rain = 0
KEN1 190733Z 31009KT 01/M02 A3018 RMK A01 T00051023  RH  081%=      5-min Rain = 0
KEN1 190734Z 31009KT 01/M02 A3019 RMK A01 T00061022  RH  081%=      5-min Rain = 0
KEN1 190735Z 30009KT 01/M02 A3019 RMK A01 T00051023  RH  082%=      5-min Rain = 0
KEN1 190736Z 31009KT 00/M02 A3018 RMK A01 T00041023  RH  082%=      5-min Rain = 0
KEN1 190737Z 31011KT 00/M02 A3019 RMK A01 T00041022  RH  082%=      5-min Rain = 0
KEN1 190738Z 30009KT 01/M02 A3019 RMK A01 T00051023  RH  082%=      5-min Rain = 0
KEN1 190739Z 30009KT 01/M02 A3019 RMK A01 T00061023  RH  081%=      5-min Rain = 0
KEN1 190740Z 31009KT 01/M02 A3019 RMK A01 T00051023  RH  081%=      5-min Rain = 0
KEN1 190741Z 30009KT 01/M02 A3019 RMK A01 T00051023  RH  082%=      5-min Rain = 0
KEN1 190742Z 31009KT 01/M02 A3018 RMK A01 T00051023  RH  082%=      5-min Rain = 0
KEN1 190743Z 31009KT 01/M02 A3018 RMK A01 T00051023  RH  082%=      5-min Rain = 0
KEN1 190744Z 31009KT 00/M02 A3018 RMK A01 T00041023  RH  082%=      5-min Rain = 0
KEN1 190745Z 31009KT 00/M02 A3018 RMK A01 T00041023  RH  082%=      5-min Rain = 0
KEN1 190746Z 31009KT 00/M02 A3018 RMK A01 T00041023  RH  082%=      5-min Rain = 0
KEN1 190747Z 31010KT 00/M02 A3018 RMK A01 T00041024  RH  082%=      5-min Rain = 0
KEN1 190748Z 31010KT 00/M02 A3018 RMK A01 T00041024  RH  082%=      5-min Rain = 0
KEN1 190749Z 31010KT 00/M02 A3019 RMK A01 T00041024  RH  081%=      5-min Rain = 0
KEN1 190750Z 31011KT 01/M02 A3019 RMK A01 T00051024  RH  081%=      5-min Rain = 0
KEN1 190751Z 31010KT 01/M02 A3019 RMK A01 T00051024  RH  081%=      5-min Rain = 0
KEN1 190752Z 31010KT 01/M02 A3018 RMK A01 T00051024  RH  081%=      5-min Rain = 0
KEN1 190753Z 31010KT 01/M02 A3018 RMK A01 T00051024  RH  081%=      5-min Rain = 0
KEN1 190754Z 31010KT 00/M02 A3018 RMK A01 T00041024  RH  081%=      5-min Rain = 0
KEN1 190755Z 31010KT 01/M02 A3018 RMK A01 T00051024  RH  081%=      5-min Rain = 0
KEN1 190756Z 31010KT 01/M02 A3018 RMK A01 T00051024  RH  081%=      5-min Rain = 0
KEN1 190757Z 31010KT 01/M02 A3018 RMK A01 T00051024  RH  081%=      5-min Rain = 0
KEN1 190758Z 31010KT 01/M02 A3018 RMK A01 T00051024  RH  081%=      5-min Rain = 0
KEN1 190759Z 31010KT 01/M02 A3018 RMK A01 T00051024  RH  081%=      5-min Rain = 0
KEN1 190800Z 31010KT 01/M02 A3018 RMK A01 T00051024  RH  081%=      5-min Rain = 0
KEN1 190801Z 31010KT 01/M02 A3018 RMK A01 T00051024  RH  081%=      5-min Rain = 0
KEN1 190802Z 31011KT 01/M02 A3019 RMK A01 T00051024  RH  081%=      5-min Rain = 0
KEN1 190803Z 31011KT 01/M03 A3019 RMK A01 T00051025  RH  081%=      5-min Rain = 0
KEN1 190804Z 31011KT 01/M03 A3019 RMK A01 T00051025  RH  081%=      5-min Rain = 0
KEN1 190805Z 31010KT 01/M02 A3019 RMK A01 T00051024  RH  081%=      5-min Rain = 0
KEN1 190806Z 31010KT 01/M02 A3019 RMK A01 T00051024  RH  081%=      5-min Rain = 0
KEN1 190807Z 31011KT 00/M03 A3019 RMK A01 T00041025  RH  081%=      5-min Rain = 0
KEN1 190808Z 31010KT 01/M03 A3019 RMK A01 T00051025  RH  081%=      5-min Rain = 0
KEN1 190809Z 31011KT 01/M03 A3019 RMK A01 T00051025  RH  081%=      5-min Rain = 0
KEN1 190810Z 31011KT 01/M03 A3019 RMK A01 T00051025  RH  080%=      5-min Rain = 0
KEN1 190811Z 31012KT 01/M03 A3019 RMK A01 T00061025  RH  080%=      5-min Rain = 0
KEN1 190812Z 31011KT 01/M03 A3019 RMK A01 T00061025  RH  080%=      5-min Rain = 0
KEN1 190813Z 31011KT 01/M03 A3018 RMK A01 T00061025  RH  080%=      5-min Rain = 0
KEN1 190814Z 31011KT 01/M03 A3018 RMK A01 T00061025  RH  080%=      5-min Rain = 0
KEN1 190815Z 31010KT 01/M03 A3018 RMK A01 T00061025  RH  080%=      5-min Rain = 0
KEN1 190816Z 31010KT 01/M03 A3018 RMK A01 T00051025  RH  080%=      5-min Rain = 0
KEN1 190817Z 31011KT 01/M03 A3018 RMK A01 T00051025  RH  080%=      5-min Rain = 0
KEN1 190818Z 31010KT 01/M03 A3018 RMK A01 T00051025  RH  080%=      5-min Rain = 0
KEN1 190819Z 31010KT 01/M03 A3018 RMK A01 T00051025  RH  081%=      5-min Rain = 0
KEN1 190820Z 31010KT 00/M03 A3018 RMK A01 T00041025  RH  081%=      5-min Rain = 0
KEN1 190821Z 31010KT 00/M03 A3018 RMK A01 T00041025  RH  081%=      5-min Rain = 0
KEN1 190822Z 31010KT 00/M03 A3018 RMK A01 T00031025  RH  081%=      5-min Rain = 0
KEN1 190823Z 31011KT 00/M03 A3018 RMK A01 T00031025  RH  081%=      5-min Rain = 0
KEN1 190824Z 31011KT 00/M03 A3018 RMK A01 T00041025  RH  081%=      5-min Rain = 0
KEN1 190825Z 31010KT 00/M03 A3018 RMK A01 T00041025  RH  081%=      5-min Rain = 0
KEN1 190826Z 31011KT 00/M03 A3018 RMK A01 T00041025  RH  081%=      5-min Rain = 0
KEN1 190827Z 31012KT 00/M03 A3018 RMK A01 T00041025  RH  081%=      5-min Rain = 0
KEN1 190828Z 31010KT 01/M03 A3019 RMK A01 T00051025  RH  080%=      5-min Rain = 0
KEN1 190829Z 31010KT 01/M03 A3019 RMK A01 T00051026  RH  080%=      5-min Rain = 0
KEN1 190830Z 31011KT 01/M03 A3019 RMK A01 T00051026  RH  080%=      5-min Rain = 0
KEN1 190831Z 31011KT 01/M03 A3019 RMK A01 T00051026  RH  080%=      5-min Rain = 0
KEN1 190832Z 31010KT 01/M03 A3019 RMK A01 T00061025  RH  080%=      5-min Rain = 0
KEN1 190833Z 31011KT 01/M03 A3019 RMK A01 T00061025  RH  080%=      5-min Rain = 0
KEN1 190834Z 31011KT 01/M03 A3019 RMK A01 T00061026  RH  080%=      5-min Rain = 0
KEN1 190835Z 31012KT 01/M03 A3019 RMK A01 T00061025  RH  080%=      5-min Rain = 0
KEN1 190836Z 31012KT 01/M03 A3019 RMK A01 T00061026  RH  080%=      5-min Rain = 0
KEN1 190837Z 31011KT 01/M03 A3019 RMK A01 T00061026  RH  079%=      5-min Rain = 0
KEN1 190838Z 31011KT 01/M03 A3019 RMK A01 T00061026  RH  080%=      5-min Rain = 0
KEN1 190839Z 30012KT 01/M03 A3019 RMK A01 T00061025  RH  080%=      5-min Rain = 0
KEN1 190840Z 30011KT 01/M03 A3019 RMK A01 T00051026  RH  080%=      5-min Rain = 0
KEN1 190841Z 31011KT 01/M03 A3019 RMK A01 T00051026  RH  080%=      5-min Rain = 0
KEN1 190842Z 31011KT 01/M03 A3019 RMK A01 T00051026  RH  080%=      5-min Rain = 0
KEN1 190843Z 30010KT 01/M03 A3019 RMK A01 T00051026  RH  080%=      5-min Rain = 0
KEN1 190844Z 30010KT 01/M03 A3019 RMK A01 T00051026  RH  080%=      5-min Rain = 0
KEN1 190845Z 30010KT 00/M03 A3019 RMK A01 T00041026  RH  080%=      5-min Rain = 0
KEN1 190846Z 30011KT 00/M03 A3019 RMK A01 T00041026  RH  080%=      5-min Rain = 0
KEN1 190847Z 31010KT 00/M03 A3019 RMK A01 T00041026  RH  080%=      5-min Rain = 0
KEN1 190848Z 31011KT 00/M03 A3019 RMK A01 T00041026  RH  080%=      5-min Rain = 0
KEN1 190849Z 31010KT 00/M03 A3019 RMK A01 T00041026  RH  080%=      5-min Rain = 0
KEN1 190850Z 31010KT 00/M03 A3019 RMK A01 T00041026  RH  080%=      5-min Rain = 0
KEN1 190851Z 30011KT 00/M03 A3019 RMK A01 T00041026  RH  080%=      5-min Rain = 0
KEN1 190852Z 31010KT 00/M03 A3019 RMK A01 T00041026  RH  080%=      5-min Rain = 0
KEN1 190853Z 31011KT 00/M03 A3019 RMK A01 T00031026  RH  081%=      5-min Rain = 0
KEN1 190854Z 31011KT 00/M03 A3019 RMK A01 T00031026  RH  081%=      5-min Rain = 0
KEN1 190855Z 31010KT 00/M03 A3019 RMK A01 T00031026  RH  080%=      5-min Rain = 0
KEN1 190856Z 31011KT 00/M03 A3019 RMK A01 T00031026  RH  080%=      5-min Rain = 0
KEN1 190857Z 31011KT 00/M03 A3019 RMK A01 T00041026  RH  080%=      5-min Rain = 0
KEN1 190858Z 31012KT 00/M03 A3019 RMK A01 T00041026  RH  080%=      5-min Rain = 0
KEN1 190859Z 31011KT 00/M03 A3019 RMK A01 T00041027  RH  080%=      5-min Rain = 0
KEN1 190900Z 31011KT 00/M03 A3019 RMK A01 T00041027  RH  080%=      5-min Rain = 0
KEN1 190901Z 31012KT 01/M03 A3019 RMK A01 T00051027  RH  080%=      5-min Rain = 0
KEN1 190902Z 31011KT 01/M03 A3019 RMK A01 T00051027  RH  079%=      5-min Rain = 0
KEN1 190903Z 31011KT 01/M03 A3019 RMK A01 T00061027  RH  079%=      5-min Rain = 0
KEN1 190904Z 31013KT 01/M03 A3019 RMK A01 T00051027  RH  079%=      5-min Rain = 0
KEN1 190905Z 31012KT 01/M03 A3019 RMK A01 T00061027  RH  079%=      5-min Rain = 0
KEN1 190906Z 31012KT 01/M03 A3019 RMK A01 T00061027  RH  078%=      5-min Rain = 0
KEN1 190907Z 31012KT 01/M03 A3019 RMK A01 T00061027  RH  078%=      5-min Rain = 0
KEN1 190908Z 31012KT 01/M03 A3019 RMK A01 T00061028  RH  078%=      5-min Rain = 0
KEN1 190909Z 31012KT 01/M03 A3019 RMK A01 T00061028  RH  078%=      5-min Rain = 0
KEN1 190910Z 31012KT 01/M03 A3019 RMK A01 T00061028  RH  078%=      5-min Rain = 0
KEN1 190911Z 31011KT 01/M03 A302 RMK A01 T00071028  RH  078%=      5-min Rain = 0
KEN1 190912Z 31012KT 01/M03 A302 RMK A01 T00071028  RH  078%=      5-min Rain = 0
KEN1 190913Z 31011KT 01/M03 A302 RMK A01 T00071028  RH  078%=      5-min Rain = 0
KEN1 190914Z 32011KT 01/M03 A302 RMK A01 T00071028  RH  078%=      5-min Rain = 0
KEN1 190915Z 32011KT 01/M03 A302 RMK A01 T00071028  RH  077%=      5-min Rain = 0
KEN1 190916Z 32011KT 01/M03 A302 RMK A01 T00071028  RH  077%=      5-min Rain = 0
KEN1 190917Z 32011KT 01/M03 A302 RMK A01 T00071028  RH  077%=      5-min Rain = 0
KEN1 190918Z 32011KT 01/M03 A302 RMK A01 T00081028  RH  077%=      5-min Rain = 0
KEN1 190919Z 32012KT 01/M03 A302 RMK A01 T00081029  RH  077%=      5-min Rain = 0
KEN1 190920Z 32012KT 01/M03 A302 RMK A01 T00081029  RH  076%=      5-min Rain = 0
KEN1 190921Z 32013KT 01/M03 A302 RMK A01 T00091029  RH  076%=      5-min Rain = 0
KEN1 190922Z 32012KT 01/M03 A302 RMK A01 T00101029  RH  075%=      5-min Rain = 0
KEN1 190923Z 32012KT 01/M03 A302 RMK A01 T00111030  RH  074%=      5-min Rain = 0
KEN1 190924Z 32012KT 01/M03 A302 RMK A01 T00111030  RH  074%=      5-min Rain = 0
KEN1 190925Z 32012KT 01/M03 A302 RMK A01 T00111030  RH  074%=      5-min Rain = 0
KEN1 190926Z 32013KT 01/M03 A302 RMK A01 T00111030  RH  074%=      5-min Rain = 0
KEN1 190927Z 32012KT 01/M03 A302 RMK A01 T00121030  RH  074%=      5-min Rain = 0
KEN1 190928Z 32013KT 01/M03 A302 RMK A01 T00121030  RH  074%=      5-min Rain = 0
KEN1 190929Z 32013KT 01/M03 A302 RMK A01 T00121030  RH  073%=      5-min Rain = 0
KEN1 190930Z 32013KT 01/M03 A3021 RMK A01 T00121030  RH  073%=      5-min Rain = 0
KEN1 190931Z 32014KT 01/M03 A3021 RMK A01 T00131030  RH  073%=      5-min Rain = 0
KEN1 190932Z 32013KT 01/M03 A3021 RMK A01 T00131031  RH  073%=      5-min Rain = 0
KEN1 190933Z 31012KT 01/M03 A3021 RMK A01 T00141031  RH  072%=      5-min Rain = 0
KEN1 190934Z 32012KT 01/M03 A3021 RMK A01 T00141031  RH  072%=      5-min Rain = 0
KEN1 190935Z 32014KT 01/M03 A3021 RMK A01 T00131031  RH  073%=      5-min Rain = 0
KEN1 190936Z 32015KT 01/M03 A3021 RMK A01 T00141031  RH  072%=      5-min Rain = 0
KEN1 190937Z 31013KT 01/M03 A3021 RMK A01 T00141031  RH  072%=      5-min Rain = 0
KEN1 190938Z 32013KT 01/M03 A3021 RMK A01 T00141031  RH  072%=      5-min Rain = 0
KEN1 190939Z 32014KT 01/M03 A3021 RMK A01 T00141031  RH  072%=      5-min Rain = 0
KEN1 190940Z 32013KT 01/M03 A3021 RMK A01 T00131031  RH  072%=      5-min Rain = 0
KEN1 190941Z 32013KT 01/M03 A3021 RMK A01 T00131031  RH  072%=      5-min Rain = 0
KEN1 190942Z 32013KT 01/M03 A3021 RMK A01 T00131031  RH  073%=      5-min Rain = 0
KEN1 190943Z 32013KT 01/M03 A3021 RMK A01 T00121031  RH  073%=      5-min Rain = 0
KEN1 190944Z 31013KT 01/M03 A3021 RMK A01 T00121031  RH  073%=      5-min Rain = 0
KEN1 190945Z 31013KT 01/M03 A3021 RMK A01 T00121031  RH  073%=      5-min Rain = 0
KEN1 190946Z 31013KT 01/M03 A3021 RMK A01 T00121031  RH  073%=      5-min Rain = 0
KEN1 190947Z 31013KT 01/M03 A3021 RMK A01 T00121031  RH  073%=      5-min Rain = 0
KEN1 190948Z 31013KT 01/M03 A3021 RMK A01 T00121031  RH  073%=      5-min Rain = 0
KEN1 190949Z 31014KT 01/M03 A3022 RMK A01 T00121031  RH  073%=      5-min Rain = 0
KEN1 190950Z 31014KT 01/M03 A3022 RMK A01 T00121031  RH  073%=      5-min Rain = 0
KEN1 190951Z 31012KT 01/M03 A3022 RMK A01 T00121031  RH  073%=      5-min Rain = 0
KEN1 190952Z 32014KT 01/M03 A3022 RMK A01 T00121031  RH  073%=      5-min Rain = 0
KEN1 190953Z 32013KT 01/M03 A3021 RMK A01 T00121032  RH  073%=      5-min Rain = 0
KEN1 190954Z 32013KT 01/M03 A3021 RMK A01 T00131032  RH  072%=      5-min Rain = 0
KEN1 190955Z 32014KT 01/M03 A3021 RMK A01 T00131032  RH  072%=      5-min Rain = 0
KEN1 190956Z 32012KT 01/M03 A3021 RMK A01 T00131032  RH  072%=      5-min Rain = 0
KEN1 190957Z 32012KT 01/M03 A3021 RMK A01 T00131031  RH  072%=      5-min Rain = 0
KEN1 190958Z 33015KT 01/M03 A3021 RMK A01 T00121032  RH  072%=      5-min Rain = 0
KEN1 190959Z 32015KT 01/M03 A3021 RMK A01 T00131032  RH  072%=      5-min Rain = 0
KEN1 191000Z 33014KT 01/M03 A3021 RMK A01 T00141033  RH  071%=      5-min Rain = 0
KEN1 191001Z 32012KT 01/M03 A3021 RMK A01 T00141033  RH  071%=      5-min Rain = 0
KEN1 191002Z 32013KT 01/M03 A3021 RMK A01 T00131032  RH  072%=      5-min Rain = 0
KEN1 191003Z 32014KT 01/M03 A3021 RMK A01 T00121032  RH  072%=      5-min Rain = 0
KEN1 191004Z 33013KT 01/M03 A3021 RMK A01 T00121032  RH  072%=      5-min Rain = 0
KEN1 191005Z 33013KT 01/M03 A3021 RMK A01 T00121033  RH  072%=      5-min Rain = 0
KEN1 191006Z 33012KT 01/M03 A3021 RMK A01 T00121032  RH  072%=      5-min Rain = 0
KEN1 191007Z 33011KT 01/M03 A3021 RMK A01 T00111032  RH  073%=      5-min Rain = 0
KEN1 191008Z 33011KT 01/M03 A3021 RMK A01 T00111032  RH  073%=      5-min Rain = 0
KEN1 191009Z 34011KT 01/M03 A3021 RMK A01 T00101033  RH  073%=      5-min Rain = 0
KEN1 191010Z 34011KT 01/M03 A3021 RMK A01 T00101032  RH  073%=      5-min Rain = 0
KEN1 191011Z 34010KT 01/M03 A3021 RMK A01 T00101032  RH  073%=      5-min Rain = 0
KEN1 191012Z 34012KT 01/M03 A3021 RMK A01 T00091032  RH  074%=      5-min Rain = 0
KEN1 191013Z 34010KT 01/M03 A3021 RMK A01 T00091033  RH  074%=      5-min Rain = 0
KEN1 191014Z 34011KT 01/M03 A3021 RMK A01 T00091032  RH  074%=      5-min Rain = 0
KEN1 191015Z 33011KT 01/M03 A3021 RMK A01 T00091032  RH  074%=      5-min Rain = 0
KEN1 191016Z 33010KT 01/M03 A3021 RMK A01 T00081033  RH  074%=      5-min Rain = 0
KEN1 191017Z 33011KT 01/M03 A3021 RMK A01 T00081033  RH  074%=      5-min Rain = 0
KEN1 191018Z 33011KT 01/M03 A3021 RMK A01 T00081033  RH  074%=      5-min Rain = 0
KEN1 191019Z 33011KT 01/M03 A3021 RMK A01 T00081033  RH  074%=      5-min Rain = 0
KEN1 191020Z 33010KT 01/M03 A3021 RMK A01 T00081033  RH  074%=      5-min Rain = 0
KEN1 191021Z 33010KT 01/M03 A3021 RMK A01 T00071033  RH  075%=      5-min Rain = 0
KEN1 191022Z 33010KT 01/M03 A3021 RMK A01 T00071032  RH  075%=      5-min Rain = 0
KEN1 191023Z 32010KT 01/M03 A3021 RMK A01 T00071033  RH  075%=      5-min Rain = 0
KEN1 191024Z 33009KT 01/M03 A3021 RMK A01 T00071033  RH  075%=      5-min Rain = 0
KEN1 191025Z 32010KT 01/M03 A3021 RMK A01 T00071033  RH  075%=      5-min Rain = 0
KEN1 191026Z 32009KT 01/M03 A3021 RMK A01 T00071033  RH  075%=      5-min Rain = 0
KEN1 191027Z 33009KT 01/M03 A3021 RMK A01 T00061033  RH  075%=      5-min Rain = 0
KEN1 191028Z 32009KT 01/M03 A3021 RMK A01 T00061033  RH  075%=      5-min Rain = 0
KEN1 191029Z 32008KT 01/M03 A3021 RMK A01 T00051033  RH  076%=      5-min Rain = 0
KEN1 191030Z 33008KT 01/M03 A3021 RMK A01 T00051033  RH  076%=      5-min Rain = 0
KEN1 191031Z 33008KT 01/M03 A3021 RMK A01 T00051033  RH  076%=      5-min Rain = 0
KEN1 191032Z 33008KT 01/M03 A3021 RMK A01 T00051033  RH  076%=      5-min Rain = 0
KEN1 191033Z 33007KT 00/M03 A3021 RMK A01 T00041033  RH  076%=      5-min Rain = 0
KEN1 191034Z 33007KT 00/M03 A3021 RMK A01 T00041033  RH  076%=      5-min Rain = 0
KEN1 191035Z 33008KT 00/M03 A3021 RMK A01 T00041033  RH  076%=      5-min Rain = 0
KEN1 191036Z 33008KT 00/M03 A3022 RMK A01 T00031033  RH  077%=      5-min Rain = 0
KEN1 191037Z 33007KT 00/M03 A3022 RMK A01 T00031033  RH  077%=      5-min Rain = 0
KEN1 191038Z 33008KT 00/M03 A3022 RMK A01 T00021033  RH  077%=      5-min Rain = 0
KEN1 191039Z 33008KT 00/M03 A3022 RMK A01 T00021033  RH  077%=      5-min Rain = 0
KEN1 191040Z 34007KT 00/M03 A3022 RMK A01 T00021033  RH  077%=      5-min Rain = 0
KEN1 191041Z 34007KT 00/M03 A3022 RMK A01 T00021033  RH  077%=      5-min Rain = 0
KEN1 191042Z 34007KT 00/M03 A3022 RMK A01 T00011034  RH  077%=      5-min Rain = 0
KEN1 191043Z 34007KT 00/M03 A3022 RMK A01 T00011034  RH  078%=      5-min Rain = 0
KEN1 191044Z 33007KT 00/M03 A3022 RMK A01 T00011033  RH  078%=      5-min Rain = 0
KEN1 191045Z 33007KT 00/M03 A3022 RMK A01 T00011034  RH  078%=      5-min Rain = 0
KEN1 191046Z 33007KT 00/03 A3022 RMK A01 T00000-34  RH  078%=      5-min Rain = 0
KEN1 191047Z 33007KT 00/03 A3022 RMK A01 T00000-33  RH  078%=      5-min Rain = 0
KEN1 191048Z 33006KT M00/M03 A3022 RMK A01 T10011034  RH  078%=      5-min Rain = 0
KEN1 191049Z 33007KT M00/M03 A3022 RMK A01 T10011034  RH  079%=      5-min Rain = 0
KEN1 191050Z 33007KT M00/M03 A3022 RMK A01 T10011034  RH  079%=      5-min Rain = 0
KEN1 191051Z 33007KT M00/M03 A3022 RMK A01 T10011033  RH  079%=      5-min Rain = 0
KEN1 191052Z 33007KT M00/M03 A3022 RMK A01 T10011033  RH  079%=      5-min Rain = 0
KEN1 191053Z 32007KT M00/M03 A3022 RMK A01 T10011033  RH  079%=      5-min Rain = 0
KEN1 191054Z 32007KT M00/M03 A3022 RMK A01 T10011033  RH  079%=      5-min Rain = 0
KEN1 191055Z 31007KT M00/M03 A3022 RMK A01 T10011033  RH  078%=      5-min Rain = 0
KEN1 191056Z 32007KT 00/03 A3022 RMK A01 T00-00-34  RH  078%=      5-min Rain = 0
KEN1 191057Z 31008KT 00/03 A3022 RMK A01 T00000-33  RH  078%=      5-min Rain = 0
KEN1 191058Z 31008KT 00/M03 A3022 RMK A01 T00011033  RH  078%=      5-min Rain = 0
KEN1 191059Z 31008KT 00/M03 A3022 RMK A01 T00011034  RH  077%=      5-min Rain = 0
KEN1 191100Z 31009KT 00/M03 A3022 RMK A01 T00011034  RH  077%=      5-min Rain = 0
KEN1 191101Z 31009KT 00/M03 A3022 RMK A01 T00011034  RH  077%=      5-min Rain = 0
KEN1 191102Z 31009KT 00/M03 A3022 RMK A01 T00011034  RH  077%=      5-min Rain = 0
KEN1 191103Z 32009KT 00/M03 A3022 RMK A01 T00021034  RH  077%=      5-min Rain = 0
KEN1 191104Z 32008KT 00/M03 A3022 RMK A01 T00021034  RH  077%=      5-min Rain = 0
KEN1 191105Z 32009KT 00/M03 A3022 RMK A01 T00021033  RH  077%=      5-min Rain = 0
KEN1 191106Z 32010KT 00/M03 A3022 RMK A01 T00031034  RH  077%=      5-min Rain = 0
KEN1 191107Z 32009KT 00/M03 A3022 RMK A01 T00031034  RH  076%=      5-min Rain = 0
KEN1 191108Z 32008KT 00/M03 A3022 RMK A01 T00031034  RH  076%=      5-min Rain = 0
KEN1 191109Z 32008KT 00/M03 A3022 RMK A01 T00031034  RH  076%=      5-min Rain = 0
KEN1 191110Z 31008KT 00/M03 A3022 RMK A01 T00031034  RH  076%=      5-min Rain = 0
KEN1 191111Z 31009KT 00/M03 A3022 RMK A01 T00031034  RH  076%=      5-min Rain = 0
KEN1 191112Z 31009KT 00/M03 A3022 RMK A01 T00031034  RH  076%=      5-min Rain = 0
KEN1 191113Z 32008KT 00/M04 A3022 RMK A01 T00031035  RH  076%=      5-min Rain = 0
KEN1 191114Z 31008KT 00/M04 A3022 RMK A01 T00031035  RH  076%=      5-min Rain = 0
KEN1 191115Z 32007KT 00/M04 A3022 RMK A01 T00021035  RH  076%=      5-min Rain = 0
KEN1 191116Z 32007KT 00/M04 A3022 RMK A01 T00021035  RH  076%=      5-min Rain = 0
KEN1 191117Z 31007KT 00/M04 A3022 RMK A01 T00011035  RH  077%=      5-min Rain = 0
KEN1 191118Z 31007KT 00/04 A3022 RMK A01 T00000-35  RH  077%=      5-min Rain = 0
KEN1 191119Z 31007KT 00/04 A3022 RMK A01 T00000-35  RH  077%=      5-min Rain = 0
KEN1 191120Z 31008KT 00/04 A3022 RMK A01 T00000-35  RH  077%=      5-min Rain = 0
KEN1 191121Z 30007KT 00/04 A3022 RMK A01 T00-00-35  RH  077%=      5-min Rain = 0
KEN1 191122Z 30007KT M00/M04 A3022 RMK A01 T10011036  RH  077%=      5-min Rain = 0
KEN1 191123Z 30007KT M00/M04 A3022 RMK A01 T10021036  RH  078%=      5-min Rain = 0
KEN1 191124Z 30006KT M00/M04 A3022 RMK A01 T10021036  RH  078%=      5-min Rain = 0
KEN1 191125Z 30006KT M00/M04 A3022 RMK A01 T10031036  RH  078%=      5-min Rain = 0
KEN1 191126Z 30006KT M00/M04 A3022 RMK A01 T10041036  RH  079%=      5-min Rain = 0
KEN1 191127Z 30006KT M00/M04 A3022 RMK A01 T10041036  RH  079%=      5-min Rain = 0
KEN1 191128Z 30006KT M01/M04 A3022 RMK A01 T10051037  RH  079%=      5-min Rain = 0
KEN1 191129Z 31006KT M01/M04 A3022 RMK A01 T10061037  RH  080%=      5-min Rain = 0
KEN1 191130Z 30006KT M01/M04 A3022 RMK A01 T10071037  RH  080%=      5-min Rain = 0
KEN1 191131Z 31006KT M01/M04 A3022 RMK A01 T10071037  RH  080%=      5-min Rain = 0
KEN1 191132Z 31006KT M01/M04 A3022 RMK A01 T10071037  RH  081%=      5-min Rain = 0
KEN1 191133Z 30006KT M01/M04 A3022 RMK A01 T10071037  RH  080%=      5-min Rain = 0
KEN1 191134Z 31006KT M01/M04 A3022 RMK A01 T10081037  RH  080%=      5-min Rain = 0
KEN1 191135Z 31006KT M01/M04 A3022 RMK A01 T10081037  RH  081%=      5-min Rain = 0
KEN1 191136Z 31006KT M01/M04 A3022 RMK A01 T10081037  RH  081%=      5-min Rain = 0
KEN1 191137Z 31006KT M01/M04 A3022 RMK A01 T10091037  RH  081%=      5-min Rain = 0
KEN1 191138Z 31006KT M01/M04 A3022 RMK A01 T10091037  RH  081%=      5-min Rain = 0
KEN1 191139Z 31006KT M01/M04 A3022 RMK A01 T10091037  RH  081%=      5-min Rain = 0
KEN1 191140Z 31006KT M01/M04 A3022 RMK A01 T10091037  RH  081%=      5-min Rain = 0
KEN1 191141Z 31006KT M01/M04 A3022 RMK A01 T10091037  RH  081%=      5-min Rain = 0
KEN1 191142Z 32006KT M01/M04 A3022 RMK A01 T10091037  RH  081%=      5-min Rain = 0
KEN1 191143Z 32006KT M01/M04 A3022 RMK A01 T10101038  RH  081%=      5-min Rain = 0
KEN1 191144Z 32006KT M01/M04 A3022 RMK A01 T10101038  RH  081%=      5-min Rain = 0
KEN1 191145Z 32006KT M01/M04 A3022 RMK A01 T10091037  RH  081%=      5-min Rain = 0
KEN1 191146Z 32006KT M01/M04 A3022 RMK A01 T10081038  RH  081%=      5-min Rain = 0
KEN1 191147Z 32006KT M01/M04 A3022 RMK A01 T10081038  RH  080%=      5-min Rain = 0
KEN1 191148Z 32006KT M01/M04 A3023 RMK A01 T10081038  RH  080%=      5-min Rain = 0
KEN1 191149Z 32006KT M01/M04 A3023 RMK A01 T10081038  RH  080%=      5-min Rain = 0
KEN1 191150Z 32006KT M01/M04 A3023 RMK A01 T10081039  RH  080%=      5-min Rain = 0
KEN1 191151Z 31006KT M01/M04 A3023 RMK A01 T10081039  RH  080%=      5-min Rain = 0
KEN1 191152Z 31006KT M01/M04 A3023 RMK A01 T10091039  RH  080%=      5-min Rain = 0
KEN1 191153Z 30007KT M01/M04 A3023 RMK A01 T10101039  RH  080%=      5-min Rain = 0
KEN1 191154Z 30006KT M01/M04 A3023 RMK A01 T10111039  RH  081%=      5-min Rain = 0
KEN1 191155Z 30006KT M01/M04 A3023 RMK A01 T10121040  RH  081%=      5-min Rain = 0
KEN1 191156Z 30006KT M01/M04 A3023 RMK A01 T10121040  RH  082%=      5-min Rain = 0
KEN1 191157Z 30007KT M01/M04 A3023 RMK A01 T10131039  RH  082%=      5-min Rain = 0
KEN1 191158Z 31007KT M01/M04 A3023 RMK A01 T10131039  RH  083%=      5-min Rain = 0
KEN1 191159Z 30007KT M01/M04 A3023 RMK A01 T10131039  RH  083%=      5-min Rain = 0
KEN1 191200Z 30006KT M01/M04 A3023 RMK A01 T10131039  RH  083%=      5-min Rain = 0
KEN1 191201Z 29006KT M01/M04 A3023 RMK A01 T10131039  RH  083%=      5-min Rain = 0
KEN1 191202Z 30006KT M01/M04 A3023 RMK A01 T10131039  RH  083%=      5-min Rain = 0
KEN1 191203Z 30006KT M01/M04 A3023 RMK A01 T10141039  RH  083%=      5-min Rain = 0
KEN1 191204Z 30006KT M02/M04 A3023 RMK A01 T10151040  RH  083%=      5-min Rain = 0
KEN1 191205Z 30005KT M02/M04 A3023 RMK A01 T10151040  RH  083%=      5-min Rain = 0
KEN1 191206Z 30005KT M02/M04 A3023 RMK A01 T10151040  RH  083%=      5-min Rain = 0
KEN1 191207Z 30005KT M02/M04 A3023 RMK A01 T10151039  RH  083%=      5-min Rain = 0
KEN1 191208Z 30005KT M02/M04 A3023 RMK A01 T10151040  RH  083%=      5-min Rain = 0
KEN1 191209Z 31005KT M02/M04 A3023 RMK A01 T10151040  RH  083%=      5-min Rain = 0
KEN1 191210Z 31005KT M02/M04 A3023 RMK A01 T10151040  RH  083%=      5-min Rain = 0
KEN1 191211Z 31005KT M02/M04 A3023 RMK A01 T10151040  RH  083%=      5-min Rain = 0
KEN1 191212Z 31005KT M02/M04 A3023 RMK A01 T10161040  RH  083%=      5-min Rain = 0
KEN1 191213Z 31005KT M02/M04 A3023 RMK A01 T10151040  RH  083%=      5-min Rain = 0
KEN1 191214Z 31004KT M02/M04 A3023 RMK A01 T10151040  RH  083%=      5-min Rain = 0
KEN1 191215Z 31004KT M01/M04 A3023 RMK A01 T10141040  RH  082%=      5-min Rain = 0
KEN1 191216Z 30004KT M01/M04 A3023 RMK A01 T10141041  RH  082%=      5-min Rain = 0
KEN1 191217Z 30005KT M01/M04 A3023 RMK A01 T10131040  RH  082%=      5-min Rain = 0
KEN1 191218Z 30005KT M01/M04 A3023 RMK A01 T10121040  RH  081%=      5-min Rain = 0
KEN1 191219Z 30005KT M01/M04 A3023 RMK A01 T10111040  RH  081%=      5-min Rain = 0
KEN1 191220Z 30005KT M01/M04 A3023 RMK A01 T10101040  RH  080%=      5-min Rain = 0
KEN1 191221Z 30005KT M01/M04 A3023 RMK A01 T10101040  RH  080%=      5-min Rain = 0
KEN1 191222Z 30005KT M01/M04 A3023 RMK A01 T10111041  RH  080%=      5-min Rain = 0
KEN1 191223Z 30005KT M01/M04 A3023 RMK A01 T10121042  RH  080%=      5-min Rain = 0
KEN1 191224Z 30005KT M01/M04 A3023 RMK A01 T10131041  RH  081%=      5-min Rain = 0
KEN1 191225Z 30005KT M01/M04 A3024 RMK A01 T10131041  RH  081%=      5-min Rain = 0
KEN1 191226Z 30005KT M01/M04 A3024 RMK A01 T10131041  RH  081%=      5-min Rain = 0
KEN1 191227Z 30005KT M01/M04 A3024 RMK A01 T10131042  RH  081%=      5-min Rain = 0
KEN1 191228Z 30005KT M01/M04 A3024 RMK A01 T10131042  RH  081%=      5-min Rain = 0
KEN1 191229Z 31005KT M01/M04 A3024 RMK A01 T10141042  RH  081%=      5-min Rain = 0
KEN1 191230Z 31005KT M01/M04 A3024 RMK A01 T10141042  RH  082%=      5-min Rain = 0
KEN1 191231Z 31005KT M02/M04 A3024 RMK A01 T10151042  RH  082%=      5-min Rain = 0
KEN1 191232Z 30005KT M02/M04 A3024 RMK A01 T10151042  RH  082%=      5-min Rain = 0
KEN1 191233Z 31005KT M02/M04 A3024 RMK A01 T10161042  RH  082%=      5-min Rain = 0
KEN1 191234Z 31005KT M02/M04 A3024 RMK A01 T10161042  RH  082%=      5-min Rain = 0
KEN1 191235Z 30005KT M02/M04 A3024 RMK A01 T10171043  RH  082%=      5-min Rain = 0
KEN1 191236Z 30005KT M02/M04 A3024 RMK A01 T10171043  RH  082%=      5-min Rain = 0
KEN1 191237Z 30006KT M02/M04 A3024 RMK A01 T10171043  RH  083%=      5-min Rain = 0
KEN1 191238Z 29006KT M02/M04 A3024 RMK A01 T10171042  RH  083%=      5-min Rain = 0
KEN1 191239Z 29006KT M02/M04 A3024 RMK A01 T10171042  RH  083%=      5-min Rain = 0
KEN1 191240Z 29006KT M02/M04 A3024 RMK A01 T10171042  RH  083%=      5-min Rain = 0
KEN1 191241Z 29006KT M02/M04 A3024 RMK A01 T10171042  RH  083%=      5-min Rain = 0
KEN1 191242Z 29006KT M02/M04 A3024 RMK A01 T10171042  RH  083%=      5-min Rain = 0
KEN1 191243Z 29006KT M02/M04 A3025 RMK A01 T10171042  RH  083%=      5-min Rain = 0
KEN1 191244Z 29006KT M02/M04 A3025 RMK A01 T10181042  RH  083%=      5-min Rain = 0
KEN1 191245Z 29006KT M02/M04 A3025 RMK A01 T10181042  RH  084%=      5-min Rain = 0
KEN1 191246Z 30005KT M02/M04 A3025 RMK A01 T10181042  RH  084%=      5-min Rain = 0
KEN1 191247Z 30005KT M02/M04 A3025 RMK A01 T10181042  RH  084%=      5-min Rain = 0
KEN1 191248Z 31005KT M02/M04 A3025 RMK A01 T10181042  RH  084%=      5-min Rain = 0
KEN1 191249Z 31005KT M02/M04 A3025 RMK A01 T10181042  RH  084%=      5-min Rain = 0
KEN1 191250Z 31005KT M02/M04 A3025 RMK A01 T10181042  RH  084%=      5-min Rain = 0
KEN1 191251Z 31005KT M02/M04 A3025 RMK A01 T10171042  RH  083%=      5-min Rain = 0
KEN1 191252Z 31005KT M02/M04 A3025 RMK A01 T10171042  RH  083%=      5-min Rain = 0
KEN1 191253Z 31005KT M02/M04 A3025 RMK A01 T10161042  RH  083%=      5-min Rain = 0
KEN1 191254Z 31005KT M02/M04 A3025 RMK A01 T10161042  RH  082%=      5-min Rain = 0
KEN1 191255Z 31006KT M02/M04 A3025 RMK A01 T10181044  RH  082%=      5-min Rain = 0
KEN1 191256Z 31006KT M02/M04 A3025 RMK A01 T10181044  RH  083%=      5-min Rain = 0
KEN1 191257Z 31005KT M02/M04 A3025 RMK A01 T10171043  RH  083%=      5-min Rain = 0
KEN1 191258Z 32005KT M02/M04 A3025 RMK A01 T10171043  RH  082%=      5-min Rain = 0
KEN1 191259Z 31005KT M02/M04 A3025 RMK A01 T10171043  RH  082%=      5-min Rain = 0
KEN1 191300Z 31005KT M02/M04 A3025 RMK A01 T10171043  RH  082%=      5-min Rain = 0
KEN1 191301Z 30006KT M02/M04 A3025 RMK A01 T10171044  RH  082%=      5-min Rain = 0
KEN1 191302Z 29007KT M02/M04 A3025 RMK A01 T10181044  RH  082%=      5-min Rain = 0
KEN1 191303Z 29007KT M02/M04 A3025 RMK A01 T10191044  RH  083%=      5-min Rain = 0
KEN1 191304Z 29007KT M02/M04 A3025 RMK A01 T10191043  RH  084%=      5-min Rain = 0
KEN1 191305Z 29007KT M02/M04 A3025 RMK A01 T10181043  RH  083%=      5-min Rain = 0
KEN1 191306Z 29006KT M02/M04 A3025 RMK A01 T10191043  RH  083%=      5-min Rain = 0
KEN1 191307Z 29007KT M02/M04 A3025 RMK A01 T10191043  RH  084%=      5-min Rain = 0
KEN1 191308Z 29006KT M02/M04 A3025 RMK A01 T10201043  RH  084%=      5-min Rain = 0
KEN1 191309Z 30006KT M02/M04 A3025 RMK A01 T10211044  RH  085%=      5-min Rain = 0
KEN1 191310Z 30006KT M02/M04 A3025 RMK A01 T10221044  RH  085%=      5-min Rain = 0
KEN1 191311Z 30005KT M02/M04 A3025 RMK A01 T10221043  RH  085%=      5-min Rain = 0
KEN1 191312Z 30005KT M02/M04 A3025 RMK A01 T10231044  RH  085%=      5-min Rain = 0
KEN1 191313Z 30005KT M02/M04 A3025 RMK A01 T10231044  RH  086%=      5-min Rain = 0
KEN1 191314Z 30005KT M02/M04 A3025 RMK A01 T10241044  RH  086%=      5-min Rain = 0
KEN1 191315Z 30006KT M03/M05 A3025 RMK A01 T10251045  RH  086%=      5-min Rain = 0
KEN1 191316Z 29006KT M03/M05 A3026 RMK A01 T10251045  RH  086%=      5-min Rain = 0
KEN1 191317Z 29006KT M03/M05 A3026 RMK A01 T10251045  RH  086%=      5-min Rain = 0
KEN1 191318Z 29006KT M03/M05 A3026 RMK A01 T10251045  RH  087%=      5-min Rain = 0
KEN1 191319Z 29006KT M03/M05 A3026 RMK A01 T10261045  RH  087%=      5-min Rain = 0
KEN1 191320Z 29006KT M03/M04 A3026 RMK A01 T10251044  RH  087%=      5-min Rain = 0
KEN1 191321Z 29007KT M03/M04 A3026 RMK A01 T10251044  RH  087%=      5-min Rain = 0
KEN1 191322Z 28006KT M03/M05 A3026 RMK A01 T10251045  RH  087%=      5-min Rain = 0
KEN1 191323Z 28006KT M03/M05 A3026 RMK A01 T10261045  RH  087%=      5-min Rain = 0
KEN1 191324Z 28005KT M03/M05 A3026 RMK A01 T10261045  RH  087%=      5-min Rain = 0
KEN1 191325Z 28005KT M03/M05 A3026 RMK A01 T10271045  RH  087%=      5-min Rain = 0
KEN1 191326Z 28005KT M03/M05 A3026 RMK A01 T10281046  RH  087%=      5-min Rain = 0
KEN1 191327Z 29006KT M03/M05 A3026 RMK A01 T10281046  RH  088%=      5-min Rain = 0
KEN1 191328Z 28006KT M03/M05 A3026 RMK A01 T10291046  RH  088%=      5-min Rain = 0
KEN1 191329Z 28006KT M03/M05 A3026 RMK A01 T10291046  RH  088%=      5-min Rain = 0
KEN1 191330Z 28006KT M03/M05 A3026 RMK A01 T10301047  RH  088%=      5-min Rain = 0
KEN1 191331Z 28005KT M03/M05 A3026 RMK A01 T10301046  RH  089%=      5-min Rain = 0
KEN1 191332Z 28006KT M03/M05 A3026 RMK A01 T10301046  RH  089%=      5-min Rain = 0
KEN1 191333Z 29005KT M03/M05 A3026 RMK A01 T10301045  RH  089%=      5-min Rain = 0
KEN1 191334Z 30005KT M03/M05 A3026 RMK A01 T10301045  RH  089%=      5-min Rain = 0
KEN1 191335Z 29006KT M03/M05 A3026 RMK A01 T10301046  RH  089%=      5-min Rain = 0
KEN1 191336Z 28006KT M03/M05 A3026 RMK A01 T10291045  RH  089%=      5-min Rain = 0
KEN1 191337Z 28005KT M03/M04 A3026 RMK A01 T10281044  RH  089%=      5-min Rain = 0
KEN1 191338Z 29005KT M03/M04 A3026 RMK A01 T10261043  RH  088%=      5-min Rain = 0
KEN1 191339Z 29006KT M03/M04 A3026 RMK A01 T10271044  RH  088%=      5-min Rain = 0
KEN1 191340Z 29006KT M03/M04 A3026 RMK A01 T10261044  RH  088%=      5-min Rain = 0
KEN1 191341Z 29006KT M03/M05 A3026 RMK A01 T10261045  RH  087%=      5-min Rain = 0
KEN1 191342Z 30006KT M03/M05 A3027 RMK A01 T10261045  RH  087%=      5-min Rain = 0
KEN1 191343Z 29006KT M03/M05 A3027 RMK A01 T10271045  RH  087%=      5-min Rain = 0
KEN1 191344Z 29006KT M03/M05 A3027 RMK A01 T10271046  RH  087%=      5-min Rain = 0
KEN1 191345Z 30006KT M03/M05 A3027 RMK A01 T10281046  RH  087%=      5-min Rain = 0
KEN1 191346Z 30006KT M03/M05 A3027 RMK A01 T10291047  RH  088%=      5-min Rain = 0
KEN1 191347Z 29006KT M03/M05 A3027 RMK A01 T10291046  RH  088%=      5-min Rain = 0
KEN1 191348Z 29005KT M03/M05 A3027 RMK A01 T10291046  RH  088%=      5-min Rain = 0
KEN1 191349Z 29005KT M03/M05 A3027 RMK A01 T10291046  RH  089%=      5-min Rain = 0
KEN1 191350Z 29004KT M03/M05 A3027 RMK A01 T10291046  RH  088%=      5-min Rain = 0
KEN1 191351Z 29005KT M03/M05 A3027 RMK A01 T10301046  RH  088%=      5-min Rain = 0
KEN1 191352Z 29004KT M03/M05 A3027 RMK A01 T10301046  RH  088%=      5-min Rain = 0
KEN1 191353Z 29005KT M03/M05 A3027 RMK A01 T10301047  RH  089%=      5-min Rain = 0
KEN1 191354Z 29005KT M03/M05 A3027 RMK A01 T10301047  RH  089%=      5-min Rain = 0
KEN1 191355Z 29004KT M03/M05 A3027 RMK A01 T10301046  RH  089%=      5-min Rain = 0
KEN1 191356Z 29004KT M03/M05 A3027 RMK A01 T10301046  RH  089%=      5-min Rain = 0
KEN1 191357Z 28004KT M03/M05 A3027 RMK A01 T10301046  RH  089%=      5-min Rain = 0
KEN1 191358Z 28005KT M03/M05 A3027 RMK A01 T10311047  RH  089%=      5-min Rain = 0
KEN1 191359Z 29005KT M03/M05 A3027 RMK A01 T10311047  RH  089%=      5-min Rain = 0
KEN1 191400Z 29004KT M03/M05 A3027 RMK A01 T10321047  RH  089%=      5-min Rain = 0
KEN1 191401Z 29005KT M03/M05 A3028 RMK A01 T10321047  RH  089%=      5-min Rain = 0
KEN1 191402Z 29005KT M03/M05 A3028 RMK A01 T10321047  RH  089%=      5-min Rain = 0
KEN1 191403Z 29005KT M03/M05 A3028 RMK A01 T10321047  RH  090%=      5-min Rain = 0
KEN1 191404Z 29005KT M03/M05 A3028 RMK A01 T10311046  RH  090%=      5-min Rain = 0
KEN1 191405Z 29005KT M03/M05 A3028 RMK A01 T10301045  RH  090%=      5-min Rain = 0
KEN1 191406Z 29005KT M03/M05 A3028 RMK A01 T10301045  RH  089%=      5-min Rain = 0
KEN1 191407Z 29004KT M03/M05 A3028 RMK A01 T10301046  RH  088%=      5-min Rain = 0
KEN1 191408Z 28004KT M03/M05 A3028 RMK A01 T10301047  RH  088%=      5-min Rain = 0
KEN1 191409Z 29004KT M03/M05 A3028 RMK A01 T10301047  RH  088%=      5-min Rain = 0
KEN1 191410Z 29003KT M03/M05 A3028 RMK A01 T10291047  RH  088%=      5-min Rain = 0
KEN1 191411Z 30003KT M03/M05 A3028 RMK A01 T10291046  RH  088%=      5-min Rain = 0
KEN1 191412Z 31003KT M03/M05 A3028 RMK A01 T10281046  RH  088%=      5-min Rain = 0
KEN1 191413Z 31003KT M03/M05 A3028 RMK A01 T10271045  RH  088%=      5-min Rain = 0
KEN1 191414Z 31003KT M03/M05 A3028 RMK A01 T10271046  RH  087%=      5-min Rain = 0
KEN1 191415Z 31003KT M03/M05 A3028 RMK A01 T10281048  RH  086%=      5-min Rain = 0
KEN1 191416Z 29003KT M03/M05 A3028 RMK A01 T10271047  RH  086%=      5-min Rain = 0
KEN1 191417Z 29003KT M03/M05 A3028 RMK A01 T10261045  RH  086%=      5-min Rain = 0
KEN1 191418Z 29004KT M02/M04 A3028 RMK A01 T10241044  RH  086%=      5-min Rain = 0
KEN1 191419Z 30004KT M02/M04 A3028 RMK A01 T10231044  RH  086%=      5-min Rain = 0
KEN1 191420Z 29003KT M02/M04 A3028 RMK A01 T10231044  RH  085%=      5-min Rain = 0
KEN1 191421Z 29004KT M02/M04 A3028 RMK A01 T10221044  RH  085%=      5-min Rain = 0
KEN1 191422Z 29004KT M02/M04 A3028 RMK A01 T10221044  RH  085%=      5-min Rain = 0
KEN1 191423Z 29004KT M02/M04 A3028 RMK A01 T10221044  RH  084%=      5-min Rain = 0
KEN1 191424Z 29004KT M02/M04 A3028 RMK A01 T10211044  RH  084%=      5-min Rain = 0
KEN1 191425Z 29004KT M02/M04 A3028 RMK A01 T10201044  RH  084%=      5-min Rain = 0
KEN1 191426Z 28004KT M02/M04 A3028 RMK A01 T10191043  RH  083%=      5-min Rain = 0
KEN1 191427Z 28004KT M02/M04 A3029 RMK A01 T10181043  RH  083%=      5-min Rain = 0
KEN1 191428Z 29004KT M02/M04 A3029 RMK A01 T10181043  RH  083%=      5-min Rain = 0
KEN1 191429Z 28003KT M02/M04 A3029 RMK A01 T10181044  RH  083%=      5-min Rain = 0
KEN1 191430Z 28002KT M02/M04 A3029 RMK A01 T10181044  RH  082%=      5-min Rain = 0
KEN1 191431Z 29003KT M02/M04 A3029 RMK A01 T10171043  RH  082%=      5-min Rain = 0
KEN1 191432Z 29003KT M02/M04 A3029 RMK A01 T10171043  RH  082%=      5-min Rain = 0
KEN1 191433Z 29003KT M02/M04 A3029 RMK A01 T10171044  RH  082%=      5-min Rain = 0
KEN1 191434Z 29003KT M02/M04 A3029 RMK A01 T10171043  RH  082%=      5-min Rain = 0
KEN1 191435Z 29003KT M02/M04 A3029 RMK A01 T10171044  RH  082%=      5-min Rain = 0
KEN1 191436Z 29002KT M02/M04 A3029 RMK A01 T10161043  RH  082%=      5-min Rain = 0
KEN1 191437Z 30002KT M02/M04 A3029 RMK A01 T10161042  RH  082%=      5-min Rain = 0
KEN1 191438Z 28002KT M02/M04 A3029 RMK A01 T10161042  RH  082%=      5-min Rain = 0
KEN1 191439Z 29003KT M02/M04 A3029 RMK A01 T10151042  RH  082%=      5-min Rain = 0
KEN1 191440Z 28004KT M02/M04 A3029 RMK A01 T10151042  RH  082%=      5-min Rain = 0
KEN1 191441Z 27003KT M02/M04 A3029 RMK A01 T10151041  RH  082%=      5-min Rain = 0
KEN1 191442Z 28003KT M01/M04 A3029 RMK A01 T10141040  RH  082%=      5-min Rain = 0
KEN1 191443Z 28004KT M01/M04 A3029 RMK A01 T10141039  RH  083%=      5-min Rain = 0
KEN1 191444Z 28004KT M01/M04 A3029 RMK A01 T10131039  RH  083%=      5-min Rain = 0
KEN1 191445Z 29003KT M01/M04 A3029 RMK A01 T10131039  RH  082%=      5-min Rain = 0
KEN1 191446Z 31003KT M01/M04 A303 RMK A01 T10121038  RH  082%=      5-min Rain = 0
KEN1 191447Z 29003KT M01/M04 A303 RMK A01 T10111038  RH  082%=      5-min Rain = 0
KEN1 191448Z 28004KT M01/M04 A303 RMK A01 T10101038  RH  082%=      5-min Rain = 0
KEN1 191449Z 28004KT M01/M04 A303 RMK A01 T10101037  RH  082%=      5-min Rain = 0
KEN1 191450Z 28004KT M01/M04 A303 RMK A01 T10091035  RH  082%=      5-min Rain = 0
KEN1 191451Z 29004KT M01/M03 A303 RMK A01 T10081033  RH  083%=      5-min Rain = 0
KEN1 191452Z 30005KT M01/M03 A303 RMK A01 T10071032  RH  083%=      5-min Rain = 0
KEN1 191453Z 29004KT M01/M03 A303 RMK A01 T10061033  RH  082%=      5-min Rain = 0
KEN1 191454Z 30005KT M01/M03 A303 RMK A01 T10051033  RH  081%=      5-min Rain = 0
KEN1 191455Z 30004KT M00/M04 A303 RMK A01 T10041035  RH  080%=      5-min Rain = 0
KEN1 191456Z 30004KT M00/M04 A303 RMK A01 T10041037  RH  078%=      5-min Rain = 0
KEN1 191457Z 29004KT M00/M04 A303 RMK A01 T10031038  RH  078%=      5-min Rain = 0
KEN1 191458Z 30004KT M00/M04 A303 RMK A01 T10021035  RH  078%=      5-min Rain = 0
KEN1 191459Z 30003KT M00/M03 A303 RMK A01 T10021034  RH  079%=      5-min Rain = 0
KEN1 191500Z 30003KT M00/M03 A303 RMK A01 T10011032  RH  079%=      5-min Rain = 0
KEN1 191501Z 29003KT 00/M03 A303 RMK A01 T00011032  RH  079%=      5-min Rain = 0
KEN1 191502Z 31003KT 00/M03 A303 RMK A01 T00011033  RH  078%=      5-min Rain = 0
KEN1 191503Z 33003KT 00/M03 A303 RMK A01 T00021032  RH  078%=      5-min Rain = 0
KEN1 191504Z 32002KT 00/M03 A303 RMK A01 T00031031  RH  078%=      5-min Rain = 0
KEN1 191505Z 32003KT 00/M03 A303 RMK A01 T00031032  RH  077%=      5-min Rain = 0
KEN1 191506Z 31002KT 00/M03 A303 RMK A01 T00041034  RH  076%=      5-min Rain = 0
KEN1 191507Z 31003KT 00/M03 A303 RMK A01 T00041033  RH  076%=      5-min Rain = 0
KEN1 191508Z 30003KT 01/M03 A303 RMK A01 T00051033  RH  076%=      5-min Rain = 0
KEN1 191509Z 30003KT 01/M03 A303 RMK A01 T00061033  RH  075%=      5-min Rain = 0
KEN1 191510Z 29003KT 01/M03 A303 RMK A01 T00061033  RH  075%=      5-min Rain = 0
KEN1 191511Z 29003KT 01/M03 A303 RMK A01 T00071033  RH  074%=      5-min Rain = 0
KEN1 191512Z 30002KT 01/M03 A303 RMK A01 T00081033  RH  074%=      5-min Rain = 0
KEN1 191513Z 29003KT 01/M03 A303 RMK A01 T00081033  RH  074%=      5-min Rain = 0
KEN1 191514Z 28003KT 01/M03 A303 RMK A01 T00091031  RH  074%=      5-min Rain = 0
KEN1 191515Z 28005KT 01/M03 A303 RMK A01 T00101030  RH  075%=      5-min Rain = 0
KEN1 191516Z 28004KT 01/M03 A303 RMK A01 T00101032  RH  074%=      5-min Rain = 0
KEN1 191517Z 28006KT 01/M03 A303 RMK A01 T00101030  RH  074%=      5-min Rain = 0
KEN1 191518Z 28005KT 01/M03 A303 RMK A01 T00111030  RH  074%=      5-min Rain = 0
KEN1 191519Z 29005KT 01/M03 A303 RMK A01 T00111031  RH  074%=      5-min Rain = 0
KEN1 191520Z 29004KT 01/M03 A3031 RMK A01 T00121029  RH  074%=      5-min Rain = 0
KEN1 191521Z 29004KT 01/M03 A3031 RMK A01 T00121030  RH  074%=      5-min Rain = 0
KEN1 191522Z 28004KT 01/M03 A303 RMK A01 T00121029  RH  074%=      5-min Rain = 0
KEN1 191523Z 28004KT 01/M03 A303 RMK A01 T00131028  RH  074%=      5-min Rain = 0
KEN1 191524Z 29005KT 01/M03 A303 RMK A01 T00141026  RH  074%=      5-min Rain = 0
KEN1 191525Z 28004KT 02/M03 A3031 RMK A01 T00151027  RH  073%=      5-min Rain = 0
KEN1 191526Z 28005KT 02/M02 A3031 RMK A01 T00161024  RH  074%=      5-min Rain = 0
KEN1 191527Z 28005KT 02/M03 A3031 RMK A01 T00171026  RH  073%=      5-min Rain = 0
KEN1 191528Z 29006KT 02/M03 A3031 RMK A01 T00171026  RH  073%=      5-min Rain = 0
KEN1 191529Z 29007KT 02/M03 A3031 RMK A01 T00181026  RH  073%=      5-min Rain = 0
KEN1 191530Z 29006KT 02/M03 A3031 RMK A01 T00191027  RH  072%=      5-min Rain = 0
KEN1 191531Z 29006KT 02/M03 A3031 RMK A01 T00191027  RH  072%=      5-min Rain = 0
KEN1 191532Z 30005KT 02/M03 A3031 RMK A01 T00191027  RH  072%=      5-min Rain = 0
KEN1 191533Z 30005KT 02/M03 A3031 RMK A01 T00201025  RH  072%=      5-min Rain = 0
KEN1 191534Z 30006KT 02/M03 A3031 RMK A01 T00201027  RH  071%=      5-min Rain = 0
KEN1 191535Z 30006KT 02/M03 A3031 RMK A01 T00201029  RH  070%=      5-min Rain = 0
KEN1 191536Z 30006KT 02/M03 A3031 RMK A01 T00211029  RH  070%=      5-min Rain = 0
KEN1 191537Z 30005KT 02/M03 A3031 RMK A01 T00211029  RH  070%=      5-min Rain = 0
KEN1 191538Z 29005KT 02/M03 A3031 RMK A01 T00211028  RH  070%=      5-min Rain = 0
KEN1 191539Z 29005KT 02/M03 A3031 RMK A01 T00221026  RH  071%=      5-min Rain = 0
KEN1 191540Z 30006KT 02/M03 A3031 RMK A01 T00221026  RH  070%=      5-min Rain = 0
KEN1 191541Z 30005KT 02/M03 A3031 RMK A01 T00231027  RH  070%=      5-min Rain = 0
KEN1 191542Z 30005KT 02/M03 A3031 RMK A01 T00231027  RH  070%=      5-min Rain = 0
KEN1 191543Z 30005KT 02/M03 A3031 RMK A01 T00231028  RH  069%=      5-min Rain = 0
KEN1 191544Z 30005KT 02/M03 A3031 RMK A01 T00241027  RH  069%=      5-min Rain = 0
KEN1 191545Z 31005KT 03/M03 A3031 RMK A01 T00251025  RH  070%=      5-min Rain = 0
KEN1 191546Z 30004KT 03/M03 A3031 RMK A01 T00261025  RH  069%=      5-min Rain = 0
KEN1 191547Z 30004KT 03/M02 A3031 RMK A01 T00261024  RH  069%=      5-min Rain = 0
KEN1 191548Z 31004KT 03/M03 A3031 RMK A01 T00261027  RH  068%=      5-min Rain = 0
KEN1 191549Z 30004KT 03/M03 A3031 RMK A01 T00271025  RH  069%=      5-min Rain = 0
KEN1 191550Z 31005KT 03/M03 A3031 RMK A01 T00281025  RH  068%=      5-min Rain = 0
KEN1 191551Z 31005KT 03/M03 A3031 RMK A01 T00291025  RH  068%=      5-min Rain = 0
KEN1 191552Z 30006KT 03/M03 A3031 RMK A01 T00291025  RH  068%=      5-min Rain = 0
KEN1 191553Z 30005KT 03/M03 A3031 RMK A01 T00291027  RH  067%=      5-min Rain = 0
KEN1 191554Z 30005KT 03/M03 A3031 RMK A01 T00291028  RH  066%=      5-min Rain = 0
KEN1 191555Z 31004KT 03/M03 A3031 RMK A01 T00291026  RH  067%=      5-min Rain = 0
KEN1 191556Z 30003KT 03/M03 A3031 RMK A01 T00301026  RH  067%=      5-min Rain = 0
KEN1 191557Z 29004KT 03/M03 A3031 RMK A01 T00301025  RH  067%=      5-min Rain = 0
KEN1 191558Z 29004KT 03/M03 A3031 RMK A01 T00311026  RH  066%=      5-min Rain = 0
KEN1 191559Z 29003KT 03/M03 A3031 RMK A01 T00311027  RH  066%=      5-min Rain = 0
KEN1 191600Z 30003KT 03/M03 A3031 RMK A01 T00311025  RH  066%=      5-min Rain = 0
KEN1 191601Z 28003KT 03/M02 A3031 RMK A01 T00331022  RH  067%=      5-min Rain = 0
KEN1 191602Z 27003KT 03/M02 A3031 RMK A01 T00341020  RH  067%=      5-min Rain = 0
KEN1 191603Z 27003KT 04/M02 A3031 RMK A01 T00351022  RH  066%=      5-min Rain = 0
KEN1 191604Z 27003KT 04/M02 A3031 RMK A01 T00351023  RH  066%=      5-min Rain = 0
KEN1 191605Z 28003KT 04/M02 A3031 RMK A01 T00361019  RH  067%=      5-min Rain = 0
KEN1 191606Z 28004KT 04/M02 A3031 RMK A01 T00371020  RH  066%=      5-min Rain = 0
KEN1 191607Z 27003KT 04/M02 A3031 RMK A01 T00371021  RH  066%=      5-min Rain = 0
KEN1 191608Z 25003KT 04/M02 A3031 RMK A01 T00371021  RH  066%=      5-min Rain = 0
KEN1 191609Z 27003KT 04/M02 A3031 RMK A01 T00371021  RH  066%=      5-min Rain = 0
KEN1 191610Z 26003KT 04/M02 A3031 RMK A01 T00381023  RH  065%=      5-min Rain = 0
KEN1 191611Z 27003KT 04/M02 A3031 RMK A01 T00371024  RH  064%=      5-min Rain = 0
KEN1 191612Z 28003KT 04/M02 A3031 RMK A01 T00371023  RH  065%=      5-min Rain = 0
KEN1 191613Z 27003KT 04/M02 A3031 RMK A01 T00381023  RH  064%=      5-min Rain = 0
KEN1 191614Z 28003KT 04/M02 A3031 RMK A01 T00381020  RH  065%=      5-min Rain = 0
KEN1 191615Z 26003KT 04/M02 A3031 RMK A01 T00401022  RH  064%=      5-min Rain = 0
KEN1 191616Z 26003KT 04/M02 A3031 RMK A01 T00401023  RH  064%=      5-min Rain = 0
KEN1 191617Z 26002KT 04/M02 A3031 RMK A01 T00401022  RH  064%=      5-min Rain = 0
KEN1 191618Z 26002KT 04/M02 A3031 RMK A01 T00401022  RH  064%=      5-min Rain = 0
KEN1 191619Z 27002KT 04/M02 A3031 RMK A01 T00401024  RH  063%=      5-min Rain = 0
KEN1 191620Z 25002KT 04/M02 A3032 RMK A01 T00411021  RH  064%=      5-min Rain = 0
KEN1 191621Z 26004KT 04/M02 A3032 RMK A01 T00431019  RH  064%=      5-min Rain = 0
KEN1 191622Z 26004KT 05/M02 A3032 RMK A01 T00451019  RH  063%=      5-min Rain = 0
KEN1 191623Z 27003KT 05/M02 A3032 RMK A01 T00451021  RH  062%=      5-min Rain = 0
KEN1 191624Z 28003KT 05/M02 A3032 RMK A01 T00451023  RH  061%=      5-min Rain = 0
KEN1 191625Z 29004KT 05/M02 A3032 RMK A01 T00451021  RH  062%=      5-min Rain = 0
KEN1 191626Z 26003KT 05/M02 A3032 RMK A01 T00461021  RH  062%=      5-min Rain = 0
KEN1 191627Z 27003KT 05/M02 A3032 RMK A01 T00461024  RH  060%=      5-min Rain = 0
KEN1 191628Z 26004KT 05/M02 A3032 RMK A01 T00461022  RH  062%=      5-min Rain = 0
KEN1 191629Z 27003KT 05/M02 A3032 RMK A01 T00471022  RH  061%=      5-min Rain = 0
KEN1 191630Z 27002KT 05/M02 A3032 RMK A01 T00481022  RH  060%=      5-min Rain = 0
KEN1 191631Z 27004KT 05/M03 A3032 RMK A01 T00481025  RH  059%=      5-min Rain = 0
KEN1 191632Z 28004KT 05/M02 A3032 RMK A01 T00491024  RH  059%=      5-min Rain = 0
KEN1 191633Z 27004KT 05/M02 A3032 RMK A01 T00481020  RH  061%=      5-min Rain = 0
KEN1 191634Z 28003KT 05/M02 A3032 RMK A01 T00491022  RH  060%=      5-min Rain = 0
KEN1 191635Z 29004KT 05/M02 A3032 RMK A01 T00491023  RH  060%=      5-min Rain = 0
KEN1 191636Z 28003KT 05/M02 A3032 RMK A01 T00491024  RH  059%=      5-min Rain = 0
KEN1 191637Z 25002KT 05/M02 A3032 RMK A01 T00501019  RH  061%=      5-min Rain = 0
KEN1 191638Z 24004KT 05/M02 A3033 RMK A01 T00511019  RH  061%=      5-min Rain = 0
KEN1 191639Z 28004KT 05/M02 A3033 RMK A01 T00521018  RH  061%=      5-min Rain = 0
KEN1 191640Z 27004KT 05/M02 A3033 RMK A01 T00521020  RH  060%=      5-min Rain = 0
KEN1 191641Z 27003KT 05/M02 A3033 RMK A01 T00521023  RH  059%=      5-min Rain = 0
KEN1 191642Z 25003KT 05/M02 A3033 RMK A01 T00511022  RH  059%=      5-min Rain = 0
KEN1 191643Z 26004KT 05/M02 A3033 RMK A01 T00511022  RH  059%=      5-min Rain = 0
KEN1 191644Z 26004KT 05/M02 A3033 RMK A01 T00521020  RH  060%=      5-min Rain = 0
KEN1 191645Z 28004KT 05/M02 A3033 RMK A01 T00531021  RH  059%=      5-min Rain = 0
KEN1 191646Z 27004KT 05/M02 A3033 RMK A01 T00531021  RH  059%=      5-min Rain = 0
KEN1 191647Z 28004KT 05/M02 A3033 RMK A01 T00541021  RH  059%=      5-min Rain = 0
KEN1 191648Z 27002KT 05/M02 A3033 RMK A01 T00541023  RH  058%=      5-min Rain = 0
KEN1 191649Z 28004KT 05/M02 A3033 RMK A01 T00531024  RH  057%=      5-min Rain = 0
KEN1 191650Z 30004KT 05/M02 A3033 RMK A01 T00541023  RH  058%=      5-min Rain = 0
KEN1 191651Z 29003KT 05/M03 A3033 RMK A01 T00541025  RH  057%=      5-min Rain = 0
KEN1 191652Z 29004KT 05/M02 A3033 RMK A01 T00541023  RH  058%=      5-min Rain = 0
KEN1 191653Z 29004KT 05/M02 A3033 RMK A01 T00541022  RH  058%=      5-min Rain = 0
KEN1 191654Z 27003KT 06/M02 A3033 RMK A01 T00561017  RH  060%=      5-min Rain = 0
KEN1 191655Z 28003KT 06/M02 A3033 RMK A01 T00571018  RH  058%=      5-min Rain = 0
KEN1 191656Z 30002KT 06/M02 A3033 RMK A01 T00571023  RH  056%=      5-min Rain = 0
KEN1 191657Z 30003KT 06/M02 A3033 RMK A01 T00581022  RH  057%=      5-min Rain = 0
KEN1 191658Z 30003KT 06/M02 A3033 RMK A01 T00581022  RH  057%=      5-min Rain = 0
KEN1 191659Z 31003KT 06/M03 A3033 RMK A01 T00571025  RH  055%=      5-min Rain = 0
KEN1 191700Z 32001KT 06/M03 A3033 RMK A01 T00571026  RH  055%=      5-min Rain = 0
KEN1 191701Z 31001KT 06/M03 A3033 RMK A01 T00571025  RH  056%=      5-min Rain = 0
KEN1 191702Z 25002KT 06/M02 A3033 RMK A01 T00591024  RH  055%=      5-min Rain = 0
KEN1 191703Z 26001KT 06/M02 A3033 RMK A01 T00601023  RH  055%=      5-min Rain = 0
KEN1 191704Z 28002KT 06/M02 A3033 RMK A01 T00611020  RH  056%=      5-min Rain = 0
KEN1 191705Z 27001KT 06/M03 A3033 RMK A01 T00621025  RH  054%=      5-min Rain = 0
KEN1 191706Z 20002KT 06/M02 A3033 RMK A01 T00621024  RH  054%=      5-min Rain = 0
KEN1 191707Z 20002KT 06/M02 A3033 RMK A01 T00631023  RH  054%=      5-min Rain = 0
KEN1 191708Z 22002KT 06/M02 A3033 RMK A01 T00641022  RH  054%=      5-min Rain = 0
KEN1 191709Z 25002KT 06/M02 A3033 RMK A01 T00641024  RH  054%=      5-min Rain = 0
KEN1 191710Z 28003KT 06/M02 A3033 RMK A01 T00641024  RH  053%=      5-min Rain = 0
KEN1 191711Z 31003KT 06/M03 A3033 RMK A01 T00641026  RH  053%=      5-min Rain = 0
KEN1 191712Z 30003KT 06/M03 A3033 RMK A01 T00641026  RH  053%=      5-min Rain = 0
KEN1 191713Z 33003KT 06/M03 A3033 RMK A01 T00641028  RH  052%=      5-min Rain = 0
KEN1 191714Z 33004KT 06/M03 A3033 RMK A01 T00641032  RH  050%=      5-min Rain = 0
KEN1 191715Z 33005KT 07/M03 A3033 RMK A01 T00651027  RH  052%=      5-min Rain = 0
KEN1 191716Z 31004KT 07/M03 A3033 RMK A01 T00651029  RH  051%=      5-min Rain = 0
KEN1 191717Z 31003KT 06/M03 A3033 RMK A01 T00641033  RH  050%=      5-min Rain = 0
KEN1 191718Z 32004KT 06/M03 A3033 RMK A01 T00641031  RH  051%=      5-min Rain = 0
KEN1 191719Z 32003KT 06/M04 A3033 RMK A01 T00631035  RH  049%=      5-min Rain = 0
KEN1 191720Z 34003KT 06/M03 A3033 RMK A01 T00631032  RH  051%=      5-min Rain = 0
KEN1 191721Z 33005KT 07/M02 A3033 RMK A01 T00661024  RH  053%=      5-min Rain = 0
KEN1 191722Z 31003KT 07/M03 A3033 RMK A01 T00651032  RH  050%=      5-min Rain = 0
KEN1 191723Z 32002KT 07/M03 A3033 RMK A01 T00651031  RH  050%=      5-min Rain = 0
KEN1 191724Z 32002KT 07/M03 A3033 RMK A01 T00651029  RH  051%=      5-min Rain = 0
KEN1 191725Z 36004KT 07/M03 A3033 RMK A01 T00661027  RH  052%=      5-min Rain = 0
KEN1 191726Z 02006KT 07/M03 A3033 RMK A01 T00661029  RH  051%=      5-min Rain = 0
KEN1 191727Z 04004KT 07/M03 A3033 RMK A01 T00661032  RH  050%=      5-min Rain = 0
KEN1 191728Z 04003KT 07/M03 A3033 RMK A01 T00651032  RH  050%=      5-min Rain = 0
KEN1 191729Z 04003KT 07/M03 A3033 RMK A01 T00651032  RH  050%=      5-min Rain = 0
KEN1 191730Z 36001KT 07/M03 A3033 RMK A01 T00651032  RH  050%=      5-min Rain = 0
KEN1 191731Z 02001KT 07/M03 A3033 RMK A01 T00651032  RH  050%=      5-min Rain = 0
KEN1 191732Z 30002KT 07/M03 A3033 RMK A01 T00661031  RH  050%=      5-min Rain = 0
KEN1 191733Z 29001KT 07/M03 A3033 RMK A01 T00661033  RH  049%=      5-min Rain = 0
KEN1 191734Z 28001KT 07/M03 A3033 RMK A01 T00671029  RH  050%=      5-min Rain = 0
KEN1 191735Z 31000KT 07/M03 A3033 RMK A01 T00691025  RH  051%=      5-min Rain = 0
KEN1 191736Z 01003KT 07/M03 A3033 RMK A01 T00711025  RH  050%=      5-min Rain = 0
KEN1 191737Z 01003KT 07/M03 A3033 RMK A01 T00711029  RH  049%=      5-min Rain = 0
KEN1 191738Z 02003KT 07/M03 A3033 RMK A01 T00701029  RH  049%=      5-min Rain = 0
KEN1 191739Z 34004KT 07/M03 A3033 RMK A01 T00701029  RH  049%=      5-min Rain = 0
KEN1 191740Z 34004KT 07/M03 A3033 RMK A01 T00701030  RH  049%=      5-min Rain = 0
KEN1 191741Z 33004KT 07/M03 A3033 RMK A01 T00701028  RH  050%=      5-min Rain = 0
KEN1 191742Z 30005KT 07/M03 A3033 RMK A01 T00711030  RH  049%=      5-min Rain = 0
KEN1 191743Z 28004KT 07/M03 A3033 RMK A01 T00701032  RH  048%=      5-min Rain = 0
KEN1 191744Z 29003KT 07/M03 A3033 RMK A01 T00691032  RH  048%=      5-min Rain = 0
KEN1 191745Z 29004KT 07/M03 A3033 RMK A01 T00691028  RH  050%=      5-min Rain = 0
KEN1 191746Z 29002KT 07/M03 A3033 RMK A01 T00701033  RH  048%=      5-min Rain = 0
KEN1 191747Z 29003KT 07/M03 A3033 RMK A01 T00691032  RH  048%=      5-min Rain = 0
KEN1 191748Z 31004KT 07/M03 A3033 RMK A01 T00701029  RH  049%=      5-min Rain = 0
KEN1 191749Z 36004KT 07/M03 A3033 RMK A01 T00711027  RH  050%=      5-min Rain = 0
KEN1 191750Z 02004KT 07/M02 A3033 RMK A01 T00721024  RH  050%=      5-min Rain = 0
KEN1 191751Z 34006KT 07/M02 A3033 RMK A01 T00741024  RH  050%=      5-min Rain = 0
KEN1 191752Z 33003KT 07/M03 A3033 RMK A01 T00741027  RH  049%=      5-min Rain = 0
KEN1 191753Z 33002KT 07/M03 A3033 RMK A01 T00731027  RH  049%=      5-min Rain = 0
KEN1 191754Z 34001KT 07/M03 A3033 RMK A01 T00731030  RH  048%=      5-min Rain = 0
KEN1 191755Z 36002KT 07/M03 A3033 RMK A01 T00721031  RH  048%=      5-min Rain = 0
KEN1 191756Z 36003KT 07/M03 A3033 RMK A01 T00731031  RH  048%=      5-min Rain = 0
KEN1 191757Z 36002KT 07/M03 A3033 RMK A01 T00721032  RH  047%=      5-min Rain = 0
KEN1 191758Z 02002KT 07/M03 A3033 RMK A01 T00721030  RH  048%=      5-min Rain = 0
KEN1 191759Z 02002KT 07/M03 A3033 RMK A01 T00731033  RH  047%=      5-min Rain = 0
KEN1 191800Z 04003KT 07/M03 A3033 RMK A01 T00721032  RH  048%=      5-min Rain = 0
KEN1 191801Z 03002KT 07/M03 A3032 RMK A01 T00731032  RH  047%=      5-min Rain = 0
KEN1 191802Z 02002KT 07/M04 A3032 RMK A01 T00731035  RH  046%=      5-min Rain = 0
KEN1 191803Z 07001KT 07/M03 A3032 RMK A01 T00731034  RH  047%=      5-min Rain = 0
KEN1 191804Z 09001KT 07/M03 A3032 RMK A01 T00741032  RH  047%=      5-min Rain = 0
KEN1 191805Z 06001KT 08/M03 A3032 RMK A01 T00761031  RH  047%=      5-min Rain = 0
KEN1 191806Z 03001KT 08/M03 A3032 RMK A01 T00771031  RH  046%=      5-min Rain = 0
KEN1 191807Z 01001KT 08/M03 A3032 RMK A01 T00781031  RH  046%=      5-min Rain = 0
KEN1 191808Z 32002KT 08/M03 A3032 RMK A01 T00781030  RH  046%=      5-min Rain = 0
KEN1 191809Z 32004KT 08/M03 A3032 RMK A01 T00781025  RH  048%=      5-min Rain = 0
KEN1 191810Z 32003KT 08/M03 A3032 RMK A01 T00791026  RH  047%=      5-min Rain = 0
KEN1 191811Z 31001KT 08/M03 A3032 RMK A01 T00781030  RH  046%=      5-min Rain = 0
KEN1 191812Z 25002KT 08/M03 A3032 RMK A01 T00771033  RH  046%=      5-min Rain = 0
KEN1 191813Z 21002KT 08/M03 A3032 RMK A01 T00771031  RH  046%=      5-min Rain = 0
KEN1 191814Z 22003KT 08/M03 A3032 RMK A01 T00771032  RH  046%=      5-min Rain = 0
KEN1 191815Z 23001KT 08/M03 A3032 RMK A01 T00771031  RH  046%=      5-min Rain = 0
KEN1 191816Z 31000KT 08/M03 A3032 RMK A01 T00771029  RH  047%=      5-min Rain = 0
KEN1 191817Z 27001KT 08/M03 A3032 RMK A01 T00791027  RH  047%=      5-min Rain = 0
KEN1 191818Z 00003KT 08/M03 A3032 RMK A01 T00801026  RH  047%=      5-min Rain = 0
KEN1 191819Z 35005KT 08/M03 A3032 RMK A01 T00811026  RH  047%=      5-min Rain = 0
KEN1 191820Z 35006KT 08/M03 A3032 RMK A01 T00801027  RH  047%=      5-min Rain = 0
KEN1 191821Z 36005KT 08/M03 A3032 RMK A01 T00791026  RH  047%=      5-min Rain = 0
KEN1 191822Z 00005KT 08/M03 A3031 RMK A01 T00791026  RH  047%=      5-min Rain = 0
KEN1 191823Z 35004KT 08/M03 A3031 RMK A01 T00791029  RH  046%=      5-min Rain = 0
KEN1 191824Z 33005KT 08/M03 A3031 RMK A01 T00781030  RH  046%=      5-min Rain = 0
KEN1 191825Z 33004KT 08/M03 A3031 RMK A01 T00771033  RH  046%=      5-min Rain = 0
KEN1 191826Z 34006KT 08/M03 A3031 RMK A01 T00761029  RH  047%=      5-min Rain = 0
KEN1 191827Z 34005KT 08/M03 A3031 RMK A01 T00771029  RH  047%=      5-min Rain = 0
KEN1 191828Z 34004KT 08/M03 A3031 RMK A01 T00771028  RH  047%=      5-min Rain = 0
KEN1 191829Z 36005KT 08/M03 A3031 RMK A01 T00791026  RH  047%=      5-min Rain = 0
KEN1 191830Z 35005KT 08/M03 A3031 RMK A01 T00791030  RH  046%=      5-min Rain = 0
KEN1 191831Z 36004KT 08/M03 A3031 RMK A01 T00781029  RH  047%=      5-min Rain = 0
KEN1 191832Z 34001KT 08/M03 A3031 RMK A01 T00781033  RH  045%=      5-min Rain = 0
KEN1 191833Z 33003KT 08/M03 A3031 RMK A01 T00781032  RH  046%=      5-min Rain = 0
KEN1 191834Z 31002KT 08/M03 A3031 RMK A01 T00791032  RH  046%=      5-min Rain = 0
KEN1 191835Z 28001KT 08/M03 A3031 RMK A01 T00791034  RH  045%=      5-min Rain = 0
KEN1 191836Z 02002KT 08/M03 A3031 RMK A01 T00791030  RH  046%=      5-min Rain = 0
KEN1 191837Z 00003KT 08/M03 A3031 RMK A01 T00801032  RH  045%=      5-min Rain = 0
KEN1 191838Z 35002KT 08/M03 A3031 RMK A01 T00801034  RH  044%=      5-min Rain = 0
KEN1 191839Z 01000KT 08/M03 A3031 RMK A01 T00801033  RH  045%=      5-min Rain = 0
KEN1 191840Z 34003KT 08/M03 A3031 RMK A01 T00801032  RH  045%=      5-min Rain = 0
KEN1 191841Z 35005KT 08/M03 A3031 RMK A01 T00821031  RH  045%=      5-min Rain = 0
KEN1 191842Z 36005KT 08/M03 A3031 RMK A01 T00811034  RH  044%=      5-min Rain = 0
KEN1 191843Z 35004KT 08/M03 A3031 RMK A01 T00791034  RH  044%=      5-min Rain = 0
KEN1 191844Z 35003KT 08/M04 A3031 RMK A01 T00781037  RH  044%=      5-min Rain = 0
KEN1 191845Z 34002KT 08/M04 A3031 RMK A01 T00781037  RH  044%=      5-min Rain = 0
KEN1 191846Z 33004KT 08/M03 A3031 RMK A01 T00801028  RH  046%=      5-min Rain = 0
KEN1 191847Z 33003KT 08/M03 A3031 RMK A01 T00811032  RH  045%=      5-min Rain = 0
KEN1 191848Z 34003KT 08/M03 A3031 RMK A01 T00811031  RH  045%=      5-min Rain = 0
KEN1 191849Z 00004KT 08/M03 A3031 RMK A01 T00811032  RH  045%=      5-min Rain = 0
KEN1 191850Z 03003KT 08/M04 A3031 RMK A01 T00821035  RH  044%=      5-min Rain = 0
KEN1 191851Z 03002KT 08/M04 A3031 RMK A01 T00811036  RH  043%=      5-min Rain = 0
KEN1 191852Z 01001KT 08/M04 A3031 RMK A01 T00801036  RH  044%=      5-min Rain = 0
KEN1 191853Z 07000KT 08/M04 A3031 RMK A01 T00801036  RH  044%=      5-min Rain = 0
KEN1 191854Z 22001KT 08/M04 A3031 RMK A01 T00811036  RH  044%=      5-min Rain = 0
KEN1 191855Z 18001KT 08/M04 A303 RMK A01 T00811038  RH  043%=      5-min Rain = 0
KEN1 191856Z 14001KT 08/M04 A303 RMK A01 T00821037  RH  043%=      5-min Rain = 0
KEN1 191857Z 15001KT 08/M04 A303 RMK A01 T00841035  RH  043%=      5-min Rain = 0
KEN1 191858Z 19001KT 09/M04 A303 RMK A01 T00851036  RH  042%=      5-min Rain = 0
KEN1 191859Z 20002KT 09/M04 A303 RMK A01 T00851036  RH  042%=      5-min Rain = 0
KEN1 191900Z 23002KT 09/M04 A303 RMK A01 T00851036  RH  042%=      5-min Rain = 0
KEN1 191901Z 21002KT 09/M03 A303 RMK A01 T00861031  RH  044%=      5-min Rain = 0
KEN1 191902Z 01001KT 09/M03 A303 RMK A01 T00871034  RH  042%=      5-min Rain = 0
KEN1 191903Z 35002KT 09/M04 A303 RMK A01 T00861035  RH  042%=      5-min Rain = 0
KEN1 191904Z 36005KT 09/M03 A303 RMK A01 T00861034  RH  043%=      5-min Rain = 0
KEN1 191905Z 00004KT 09/M03 A303 RMK A01 T00861031  RH  044%=      5-min Rain = 0
KEN1 191906Z 02003KT 09/M03 A303 RMK A01 T00851034  RH  043%=      5-min Rain = 0
KEN1 191907Z 34001KT 09/M03 A303 RMK A01 T00851034  RH  043%=      5-min Rain = 0
KEN1 191908Z 25001KT 08/M04 A303 RMK A01 T00841040  RH  041%=      5-min Rain = 0
KEN1 191909Z 23002KT 08/M04 A303 RMK A01 T00841038  RH  042%=      5-min Rain = 0
KEN1 191910Z 32001KT 08/M04 A303 RMK A01 T00841037  RH  042%=      5-min Rain = 0
KEN1 191911Z 00003KT 08/M04 A303 RMK A01 T00841036  RH  043%=      5-min Rain = 0
KEN1 191912Z 33001KT 09/M04 A303 RMK A01 T00851035  RH  043%=      5-min Rain = 0
KEN1 191913Z 36002KT 09/M03 A303 RMK A01 T00861030  RH  044%=      5-min Rain = 0
KEN1 191914Z 32004KT 09/M03 A303 RMK A01 T00891027  RH  044%=      5-min Rain = 0
KEN1 191915Z 32004KT 09/M03 A303 RMK A01 T00901027  RH  044%=      5-min Rain = 0
KEN1 191916Z 32004KT 09/M03 A303 RMK A01 T00901026  RH  044%=      5-min Rain = 0
KEN1 191917Z 31006KT 09/M03 A303 RMK A01 T00901027  RH  044%=      5-min Rain = 0
KEN1 191918Z 30004KT 09/M03 A303 RMK A01 T00881030  RH  043%=      5-min Rain = 0
KEN1 191919Z 29002KT 09/M03 A303 RMK A01 T00881029  RH  043%=      5-min Rain = 0
KEN1 191920Z 35000KT 09/M03 A303 RMK A01 T00891029  RH  043%=      5-min Rain = 0
KEN1 191921Z 29001KT 09/M03 A303 RMK A01 T00911030  RH  043%=      5-min Rain = 0
KEN1 191922Z 32003KT 09/M03 A303 RMK A01 T00921030  RH  042%=      5-min Rain = 0
KEN1 191923Z 31004KT 09/M03 A303 RMK A01 T00921029  RH  042%=      5-min Rain = 0
KEN1 191924Z 33002KT 09/M03 A303 RMK A01 T00901031  RH  042%=      5-min Rain = 0
KEN1 191925Z 09001KT 09/M03 A303 RMK A01 T00891033  RH  042%=      5-min Rain = 0
KEN1 191926Z 08001KT 09/M04 A303 RMK A01 T00891035  RH  042%=      5-min Rain = 0
KEN1 191927Z 00000KT 09/M03 A303 RMK A01 T00891030  RH  043%=      5-min Rain = 0
KEN1 191928Z 29003KT 09/M03 A3029 RMK A01 T00921027  RH  043%=      5-min Rain = 0
KEN1 191929Z 30004KT 09/M03 A3029 RMK A01 T00911033  RH  042%=      5-min Rain = 0
KEN1 191930Z 33002KT 09/M04 A3029 RMK A01 T00891035  RH  041%=      5-min Rain = 0
KEN1 191931Z 29003KT 09/M04 A3029 RMK A01 T00881036  RH  042%=      5-min Rain = 0
KEN1 191932Z 19003KT 09/M04 A3029 RMK A01 T00861036  RH  042%=      5-min Rain = 0
KEN1 191933Z 19002KT 09/M04 A3029 RMK A01 T00871035  RH  042%=      5-min Rain = 0
KEN1 191934Z 14001KT 09/M04 A3029 RMK A01 T00871036  RH  042%=      5-min Rain = 0
KEN1 191935Z 12002KT 09/M03 A3029 RMK A01 T00881033  RH  042%=      5-min Rain = 0
KEN1 191936Z 12003KT 09/M03 A3029 RMK A01 T00911029  RH  043%=      5-min Rain = 0
KEN1 191937Z 12003KT 10/M03 A3029 RMK A01 T00951029  RH  042%=      5-min Rain = 0
KEN1 191938Z 15003KT 10/M03 A3029 RMK A01 T00961028  RH  042%=      5-min Rain = 0
KEN1 191939Z 17003KT 10/M03 A3029 RMK A01 T00971030  RH  041%=      5-min Rain = 0
KEN1 191940Z 16003KT 10/M03 A3029 RMK A01 T00971032  RH  040%=      5-min Rain = 0
KEN1 191941Z 10002KT 10/M03 A3029 RMK A01 T00951034  RH  040%=      5-min Rain = 0
KEN1 191942Z 14002KT 09/M03 A3028 RMK A01 T00941034  RH  040%=      5-min Rain = 0
KEN1 191943Z 15003KT 09/M03 A3028 RMK A01 T00931034  RH  041%=      5-min Rain = 0
KEN1 191944Z 16002KT 09/M03 A3028 RMK A01 T00941032  RH  041%=      5-min Rain = 0
KEN1 191945Z 14003KT 10/M03 A3028 RMK A01 T00961028  RH  042%=      5-min Rain = 0
KEN1 191946Z 14005KT 10/M03 A3028 RMK A01 T00981026  RH  042%=      5-min Rain = 0
KEN1 191947Z 15005KT 10/M03 A3028 RMK A01 T00981029  RH  041%=      5-min Rain = 0
KEN1 191948Z 14006KT 10/M03 A3028 RMK A01 T00981028  RH  041%=      5-min Rain = 0
KEN1 191949Z 15004KT 10/M03 A3028 RMK A01 T00981026  RH  042%=      5-min Rain = 0
KEN1 191950Z 14005KT 10/M03 A3028 RMK A01 T00991028  RH  041%=      5-min Rain = 0
KEN1 191951Z 13003KT 10/M03 A3028 RMK A01 T00971034  RH  039%=      5-min Rain = 0
KEN1 191952Z 11003KT 09/M03 A3028 RMK A01 T00941034  RH  040%=      5-min Rain = 0
KEN1 191953Z 12002KT 09/M04 A3028 RMK A01 T00931036  RH  040%=      5-min Rain = 0
KEN1 191954Z 08002KT 09/M04 A3027 RMK A01 T00921037  RH  040%=      5-min Rain = 0
KEN1 191955Z 09001KT 09/M04 A3027 RMK A01 T00911038  RH  040%=      5-min Rain = 0
KEN1 191956Z 06001KT 09/M04 A3027 RMK A01 T00911037  RH  040%=      5-min Rain = 0
KEN1 191957Z 07002KT 09/M04 A3027 RMK A01 T00911035  RH  041%=      5-min Rain = 0
KEN1 191958Z 09002KT 09/M04 A3027 RMK A01 T00921036  RH  041%=      5-min Rain = 0
KEN1 191959Z 09002KT 09/M03 A3027 RMK A01 T00931034  RH  041%=      5-min Rain = 0
KEN1 192000Z 04002KT 09/M04 A3027 RMK A01 T00931037  RH  040%=      5-min Rain = 0
KEN1 192001Z 03002KT 09/M04 A3027 RMK A01 T00941035  RH  040%=      5-min Rain = 0
KEN1 192002Z 01001KT 10/M04 A3027 RMK A01 T00951035  RH  040%=      5-min Rain = 0
KEN1 192003Z 29001KT 10/M03 A3027 RMK A01 T00961032  RH  041%=      5-min Rain = 0
KEN1 192004Z 26002KT 10/M03 A3027 RMK A01 T00971034  RH  040%=      5-min Rain = 0
KEN1 192005Z 29001KT 10/M03 A3027 RMK A01 T00971033  RH  040%=      5-min Rain = 0
KEN1 192006Z 31000KT 10/M04 A3027 RMK A01 T00981037  RH  038%=      5-min Rain = 0
KEN1 192007Z 04001KT 10/M04 A3026 RMK A01 T01011036  RH  038%=      5-min Rain = 0
KEN1 192008Z 02001KT 10/M04 A3026 RMK A01 T01011039  RH  037%=      5-min Rain = 0
KEN1 192009Z 08002KT 10/M04 A3026 RMK A01 T01011039  RH  037%=      5-min Rain = 0
KEN1 192010Z 04002KT 10/M04 A3026 RMK A01 T01021036  RH  038%=      5-min Rain = 0
KEN1 192011Z 02004KT 10/M03 A3026 RMK A01 T01041033  RH  038%=      5-min Rain = 0
KEN1 192012Z 05002KT 10/M04 A3026 RMK A01 T01031037  RH  037%=      5-min Rain = 0
KEN1 192013Z 07001KT 10/M04 A3026 RMK A01 T01021039  RH  037%=      5-min Rain = 0
KEN1 192014Z 03001KT 10/M04 A3026 RMK A01 T01021037  RH  037%=      5-min Rain = 0
KEN1 192015Z 24002KT 10/M04 A3026 RMK A01 T01021038  RH  037%=      5-min Rain = 0
KEN1 192016Z 30001KT 10/M04 A3026 RMK A01 T01031037  RH  037%=      5-min Rain = 0
KEN1 192017Z 29002KT 10/M04 A3026 RMK A01 T01031035  RH  038%=      5-min Rain = 0
KEN1 192018Z 33001KT 10/M04 A3026 RMK A01 T01031036  RH  037%=      5-min Rain = 0
KEN1 192019Z 08004KT 10/M03 A3026 RMK A01 T01031033  RH  038%=      5-min Rain = 0
KEN1 192020Z 10003KT 10/M04 A3025 RMK A01 T01031035  RH  038%=      5-min Rain = 0
KEN1 192021Z 07006KT 10/M03 A3025 RMK A01 T01041033  RH  038%=      5-min Rain = 0
KEN1 192022Z 08006KT 11/M03 A3025 RMK A01 T01061033  RH  037%=      5-min Rain = 0
KEN1 192023Z 07004KT 11/M04 A3025 RMK A01 T01051037  RH  037%=      5-min Rain = 0
KEN1 192024Z 09003KT 10/M04 A3025 RMK A01 T01021039  RH  037%=      5-min Rain = 0
KEN1 192025Z 07003KT 10/M04 A3025 RMK A01 T01001040  RH  037%=      5-min Rain = 0
KEN1 192026Z 08004KT 10/M04 A3025 RMK A01 T00991038  RH  038%=      5-min Rain = 0
KEN1 192027Z 05004KT 10/M04 A3025 RMK A01 T01001037  RH  038%=      5-min Rain = 0
KEN1 192028Z 01004KT 10/M04 A3025 RMK A01 T01011036  RH  038%=      5-min Rain = 0
KEN1 192029Z 03004KT 10/M04 A3025 RMK A01 T01001040  RH  037%=      5-min Rain = 0
KEN1 192030Z 10002KT 10/M04 A3025 RMK A01 T00981041  RH  037%=      5-min Rain = 0
KEN1 192031Z 14002KT 10/M04 A3025 RMK A01 T00981039  RH  038%=      5-min Rain = 0
KEN1 192032Z 14003KT 10/M04 A3025 RMK A01 T00991040  RH  037%=      5-min Rain = 0
KEN1 192033Z 13001KT 10/M04 A3025 RMK A01 T00991042  RH  037%=      5-min Rain = 0
KEN1 192034Z 14000KT 10/M04 A3025 RMK A01 T00981042  RH  037%=      5-min Rain = 0
KEN1 192035Z 06002KT 10/M04 A3025 RMK A01 T01001037  RH  038%=      5-min Rain = 0
KEN1 192036Z 09002KT 10/M04 A3025 RMK A01 T01011039  RH  037%=      5-min Rain = 0
KEN1 192037Z 14002KT 10/M04 A3025 RMK A01 T01011040  RH  037%=      5-min Rain = 0
KEN1 192038Z 13005KT 10/M04 A3025 RMK A01 T01001040  RH  037%=      5-min Rain = 0
KEN1 192039Z 13005KT 10/M04 A3024 RMK A01 T00991041  RH  037%=      5-min Rain = 0
KEN1 192040Z 14004KT 10/M04 A3024 RMK A01 T00981041  RH  037%=      5-min Rain = 0
KEN1 192041Z 12002KT 10/M04 A3024 RMK A01 T00971043  RH  037%=      5-min Rain = 0
KEN1 192042Z 01002KT 10/M04 A3024 RMK A01 T00971044  RH  036%=      5-min Rain = 0
KEN1 192043Z 01001KT 10/M04 A3024 RMK A01 T00971044  RH  037%=      5-min Rain = 0
KEN1 192044Z 13003KT 10/M04 A3024 RMK A01 T00971043  RH  037%=      5-min Rain = 0
KEN1 192045Z 12003KT 10/M04 A3024 RMK A01 T00981043  RH  037%=      5-min Rain = 0
KEN1 192046Z 16001KT 10/M04 A3024 RMK A01 T00981042  RH  037%=      5-min Rain = 0
KEN1 192047Z 15001KT 10/M04 A3024 RMK A01 T01011042  RH  036%=      5-min Rain = 0
KEN1 192048Z 13004KT 10/M04 A3024 RMK A01 T01031043  RH  035%=      5-min Rain = 0
KEN1 192049Z 14005KT 10/M04 A3024 RMK A01 T01031042  RH  036%=      5-min Rain = 0
KEN1 192050Z 12006KT 10/M04 A3024 RMK A01 T01031040  RH  036%=      5-min Rain = 0
KEN1 192051Z 13003KT 10/M04 A3024 RMK A01 T01021042  RH  036%=      5-min Rain = 0
KEN1 192052Z 12003KT 10/M04 A3023 RMK A01 T01011043  RH  036%=      5-min Rain = 0
KEN1 192053Z 16002KT 10/M04 A3023 RMK A01 T01021043  RH  036%=      5-min Rain = 0
KEN1 192054Z 19002KT 10/M05 A3023 RMK A01 T01021045  RH  035%=      5-min Rain = 0
KEN1 192055Z 14003KT 10/M04 A3023 RMK A01 T01011043  RH  036%=      5-min Rain = 0
KEN1 192056Z 17002KT 10/M04 A3023 RMK A01 T01021044  RH  035%=      5-min Rain = 0
KEN1 192057Z 14002KT 10/M04 A3023 RMK A01 T01021043  RH  036%=      5-min Rain = 0
KEN1 192058Z 10001KT 10/M05 A3023 RMK A01 T01031045  RH  035%=      5-min Rain = 0
KEN1 192059Z 06000KT 10/M04 A3023 RMK A01 T01031044  RH  035%=      5-min Rain = 0
KEN1 192100Z 36000KT 10/M05 A3023 RMK A01 T01031045  RH  035%=      5-min Rain = 0
KEN1 192101Z 13001KT 10/M04 A3023 RMK A01 T01031044  RH  035%=      5-min Rain = 0
KEN1 192102Z 15005KT 10/M04 A3023 RMK A01 T01041043  RH  035%=      5-min Rain = 0
KEN1 192103Z 14003KT 11/M04 A3023 RMK A01 T01051044  RH  035%=      5-min Rain = 0
KEN1 192104Z 15002KT 11/M05 A3023 RMK A01 T01051046  RH  034%=      5-min Rain = 0
KEN1 192105Z 14001KT 10/M04 A3023 RMK A01 T01041044  RH  035%=      5-min Rain = 0
KEN1 192106Z 20002KT 11/M04 A3023 RMK A01 T01051043  RH  035%=      5-min Rain = 0
KEN1 192107Z 20003KT 11/M05 A3023 RMK A01 T01061045  RH  034%=      5-min Rain = 0
KEN1 192108Z 21001KT 11/M05 A3023 RMK A01 T01051046  RH  034%=      5-min Rain = 0
KEN1 192109Z 36001KT 10/M05 A3023 RMK A01 T01031049  RH  034%=      5-min Rain = 0
KEN1 192110Z 27000KT 10/M05 A3023 RMK A01 T01021048  RH  034%=      5-min Rain = 0
KEN1 192111Z 04000KT 10/M04 A3023 RMK A01 T01031043  RH  035%=      5-min Rain = 0
KEN1 192112Z 14002KT 11/M04 A3023 RMK A01 T01061042  RH  035%=      5-min Rain = 0
KEN1 192113Z 14002KT 11/M05 A3023 RMK A01 T01071045  RH  034%=      5-min Rain = 0
KEN1 192114Z 15004KT 11/M04 A3023 RMK A01 T01071043  RH  035%=      5-min Rain = 0
KEN1 192115Z 16005KT 11/M04 A3023 RMK A01 T01081043  RH  034%=      5-min Rain = 0
KEN1 192116Z 16004KT 11/M04 A3023 RMK A01 T01081043  RH  034%=      5-min Rain = 0
KEN1 192117Z 16005KT 11/M04 A3023 RMK A01 T01071044  RH  034%=      5-min Rain = 0
KEN1 192118Z 17004KT 11/M05 A3023 RMK A01 T01061046  RH  034%=      5-min Rain = 0
KEN1 192119Z 19003KT 11/M05 A3023 RMK A01 T01051049  RH  034%=      5-min Rain = 0
KEN1 192120Z 19005KT 10/M05 A3023 RMK A01 T01041046  RH  035%=      5-min Rain = 0
KEN1 192121Z 17005KT 10/M05 A3023 RMK A01 T01041048  RH  034%=      5-min Rain = 0
KEN1 192122Z 21004KT 10/M05 A3023 RMK A01 T01041046  RH  034%=      5-min Rain = 0
KEN1 192123Z 20005KT 10/M05 A3023 RMK A01 T01041047  RH  034%=      5-min Rain = 0
KEN1 192124Z 18003KT 11/M05 A3023 RMK A01 T01051047  RH  034%=      5-min Rain = 0
KEN1 192125Z 17003KT 11/M05 A3023 RMK A01 T01051049  RH  034%=      5-min Rain = 0
KEN1 192126Z 16002KT 11/M05 A3023 RMK A01 T01051046  RH  034%=      5-min Rain = 0
KEN1 192127Z 14003KT 11/M04 A3023 RMK A01 T01081041  RH  035%=      5-min Rain = 0
KEN1 192128Z 10003KT 11/M05 A3023 RMK A01 T01101049  RH  033%=      5-min Rain = 0
KEN1 192129Z 08003KT 11/M06 A3023 RMK A01 T01071061  RH  030%=      5-min Rain = 0
KEN1 192130Z 08003KT 10/M06 A3023 RMK A01 T01041061  RH  031%=      5-min Rain = 0
KEN1 192131Z 06003KT 10/M06 A3023 RMK A01 T01041058  RH  031%=      5-min Rain = 0
KEN1 192132Z 05003KT 11/M06 A3023 RMK A01 T01051059  RH  031%=      5-min Rain = 0
KEN1 192133Z 04003KT 10/M06 A3023 RMK A01 T01041057  RH  032%=      5-min Rain = 0
KEN1 192134Z 04002KT 10/M05 A3023 RMK A01 T01041054  RH  032%=      5-min Rain = 0
KEN1 192135Z 01001KT 10/M05 A3023 RMK A01 T01041053  RH  033%=      5-min Rain = 0
KEN1 192136Z 34002KT 10/M06 A3023 RMK A01 T01041056  RH  032%=      5-min Rain = 0
KEN1 192137Z 32002KT 10/M06 A3023 RMK A01 T01041059  RH  031%=      5-min Rain = 0
KEN1 192138Z 36001KT 11/M06 A3023 RMK A01 T01051055  RH  032%=      5-min Rain = 0
KEN1 192139Z 09001KT 11/M06 A3023 RMK A01 T01071055  RH  032%=      5-min Rain = 0
KEN1 192140Z 02002KT 11/M05 A3023 RMK A01 T01101050  RH  032%=      5-min Rain = 0
KEN1 192141Z 06003KT 11/M05 A3023 RMK A01 T01111051  RH  032%=      5-min Rain = 0
KEN1 192142Z 09002KT 11/M05 A3023 RMK A01 T01121051  RH  031%=      5-min Rain = 0
KEN1 192143Z 09002KT 11/M05 A3023 RMK A01 T01121054  RH  031%=      5-min Rain = 0
KEN1 192144Z 10003KT 11/M06 A3023 RMK A01 T01111056  RH  031%=      5-min Rain = 0
KEN1 192145Z 09004KT 11/M06 A3023 RMK A01 T01101056  RH  031%=      5-min Rain = 0
KEN1 192146Z 09005KT 11/M06 A3023 RMK A01 T01091057  RH  031%=      5-min Rain = 0
KEN1 192147Z 10005KT 11/M06 A3023 RMK A01 T01081058  RH  031%=      5-min Rain = 0
KEN1 192148Z 10004KT 11/M06 A3023 RMK A01 T01071057  RH  031%=      5-min Rain = 0
KEN1 192149Z 06006KT 11/M06 A3023 RMK A01 T01071058  RH  031%=      5-min Rain = 0
KEN1 192150Z 05005KT 11/M06 A3023 RMK A01 T01081056  RH  031%=      5-min Rain = 0
KEN1 192151Z 05004KT 11/M06 A3023 RMK A01 T01061059  RH  031%=      5-min Rain = 0
KEN1 192152Z 05003KT 11/M06 A3023 RMK A01 T01051058  RH  031%=      5-min Rain = 0
KEN1 192153Z 07002KT 11/M06 A3023 RMK A01 T01061055  RH  032%=      5-min Rain = 0
KEN1 192154Z 12003KT 11/M06 A3023 RMK A01 T01071055  RH  031%=      5-min Rain = 0
KEN1 192155Z 14004KT 11/M06 A3023 RMK A01 T01081056  RH  031%=      5-min Rain = 0
KEN1 192156Z 14005KT 11/M06 A3023 RMK A01 T01081055  RH  031%=      5-min Rain = 0
KEN1 192157Z 14004KT 11/M06 A3023 RMK A01 T01091059  RH  030%=      5-min Rain = 0
KEN1 192158Z 13004KT 11/M06 A3023 RMK A01 T01081060  RH  030%=      5-min Rain = 0
KEN1 192159Z 11003KT 11/M05 A3023 RMK A01 T01081053  RH  032%=      5-min Rain = 0
KEN1 192200Z 11003KT 11/M06 A3023 RMK A01 T01091057  RH  031%=      5-min Rain = 0
KEN1 192201Z 09002KT 11/M06 A3023 RMK A01 T01081058  RH  031%=      5-min Rain = 0
KEN1 192202Z 10003KT 11/M06 A3023 RMK A01 T01061060  RH  030%=      5-min Rain = 0
KEN1 192203Z 10002KT 11/M06 A3023 RMK A01 T01061059  RH  031%=      5-min Rain = 0
KEN1 192204Z 09002KT 11/M06 A3023 RMK A01 T01061060  RH  031%=      5-min Rain = 0
KEN1 192205Z 06002KT 11/M06 A3023 RMK A01 T01061061  RH  030%=      5-min Rain = 0
KEN1 192206Z 08001KT 11/M06 A3023 RMK A01 T01061063  RH  030%=      5-min Rain = 0
KEN1 192207Z 20002KT 11/M06 A3023 RMK A01 T01071063  RH  030%=      5-min Rain = 0
KEN1 192208Z 20003KT 11/M06 A3023 RMK A01 T01091061  RH  030%=      5-min Rain = 0
KEN1 192209Z 24001KT 11/M06 A3023 RMK A01 T01091060  RH  030%=      5-min Rain = 0
KEN1 192210Z 24002KT 11/M06 A3023 RMK A01 T01111059  RH  030%=      5-min Rain = 0
KEN1 192211Z 23004KT 11/M06 A3023 RMK A01 T01121058  RH  030%=      5-min Rain = 0
KEN1 192212Z 22005KT 11/M06 A3023 RMK A01 T01121061  RH  029%=      5-min Rain = 0
KEN1 192213Z 23003KT 11/M06 A3023 RMK A01 T01111062  RH  029%=      5-min Rain = 0
KEN1 192214Z 24002KT 11/M06 A3023 RMK A01 T01121059  RH  030%=      5-min Rain = 0
KEN1 192215Z 25004KT 11/M06 A3023 RMK A01 T01131062  RH  029%=      5-min Rain = 0
KEN1 192216Z 26002KT 11/M07 A3023 RMK A01 T01111065  RH  028%=      5-min Rain = 0
KEN1 192217Z 30002KT 11/M06 A3023 RMK A01 T01101064  RH  029%=      5-min Rain = 0
KEN1 192218Z 31002KT 11/M06 A3022 RMK A01 T01101064  RH  029%=      5-min Rain = 0
KEN1 192219Z 30001KT 11/M06 A3022 RMK A01 T01101063  RH  029%=      5-min Rain = 0
KEN1 192220Z 23001KT 11/M06 A3022 RMK A01 T01101060  RH  030%=      5-min Rain = 0
KEN1 192221Z 17002KT 11/M07 A3022 RMK A01 T01121065  RH  028%=      5-min Rain = 0
KEN1 192222Z 15004KT 11/M07 A3022 RMK A01 T01131066  RH  028%=      5-min Rain = 0
KEN1 192223Z 16004KT 11/M07 A3022 RMK A01 T01131066  RH  028%=      5-min Rain = 0
KEN1 192224Z 20006KT 11/M06 A3023 RMK A01 T01121062  RH  029%=      5-min Rain = 0
KEN1 192225Z 19006KT 11/M06 A3023 RMK A01 T01131059  RH  030%=      5-min Rain = 0
KEN1 192226Z 17006KT 11/M06 A3023 RMK A01 T01121064  RH  029%=      5-min Rain = 0
KEN1 192227Z 18003KT 11/M07 A3023 RMK A01 T01101069  RH  028%=      5-min Rain = 0
KEN1 192228Z 16002KT 11/M07 A3023 RMK A01 T01081071  RH  028%=      5-min Rain = 0
KEN1 192229Z 18001KT 11/M07 A3023 RMK A01 T01081069  RH  028%=      5-min Rain = 0
KEN1 192230Z 13001KT 11/M07 A3023 RMK A01 T01071071  RH  028%=      5-min Rain = 0
KEN1 192231Z 02000KT 11/M07 A3023 RMK A01 T01071070  RH  028%=      5-min Rain = 0
KEN1 192232Z 00000KT 11/M07 A3023 RMK A01 T01091067  RH  028%=      5-min Rain = 0
KEN1 192233Z 03000KT 11/M06 A3023 RMK A01 T01131062  RH  029%=      5-min Rain = 0
KEN1 192234Z 14000KT 12/M06 A3023 RMK A01 T01151063  RH  028%=      5-min Rain = 0
KEN1 192235Z 19000KT 12/M07 A3023 RMK A01 T01191065  RH  027%=      5-min Rain = 0
KEN1 192236Z 23000KT 12/M07 A3023 RMK A01 T01201068  RH  026%=      5-min Rain = 0
KEN1 192237Z 18002KT 12/M07 A3023 RMK A01 T01201068  RH  026%=      5-min Rain = 0
KEN1 192238Z 17004KT 12/M07 A3023 RMK A01 T01201068  RH  026%=      5-min Rain = 0
KEN1 192239Z 17004KT 12/M07 A3023 RMK A01 T01181071  RH  026%=      5-min Rain = 0
KEN1 192240Z 16003KT 12/M07 A3023 RMK A01 T01151074  RH  026%=      5-min Rain = 0
KEN1 192241Z 15002KT 11/M08 A3023 RMK A01 T01131076  RH  026%=      5-min Rain = 0
KEN1 192242Z 14001KT 11/M07 A3023 RMK A01 T01121073  RH  027%=      5-min Rain = 0
KEN1 192243Z 15003KT 11/M07 A3023 RMK A01 T01121073  RH  027%=      5-min Rain = 0
KEN1 192244Z 17002KT 11/M07 A3023 RMK A01 T01131070  RH  027%=      5-min Rain = 0
KEN1 192245Z 20001KT 11/M07 A3023 RMK A01 T01121074  RH  026%=      5-min Rain = 0
KEN1 192246Z 18001KT 11/M07 A3023 RMK A01 T01131073  RH  026%=      5-min Rain = 0
KEN1 192247Z 18002KT 11/M08 A3023 RMK A01 T01141075  RH  026%=      5-min Rain = 0
KEN1 192248Z 18002KT 11/M07 A3023 RMK A01 T01141074  RH  026%=      5-min Rain = 0
KEN1 192249Z 19002KT 12/M07 A3023 RMK A01 T01151071  RH  027%=      5-min Rain = 0
KEN1 192250Z 23001KT 12/M07 A3023 RMK A01 T01151072  RH  026%=      5-min Rain = 0
KEN1 192251Z 23001KT 12/M07 A3023 RMK A01 T01161073  RH  026%=      5-min Rain = 0
KEN1 192252Z 14002KT 12/M07 A3023 RMK A01 T01171069  RH  027%=      5-min Rain = 0
KEN1 192253Z 13003KT 12/M07 A3023 RMK A01 T01171072  RH  026%=      5-min Rain = 0
KEN1 192254Z 11003KT 12/M07 A3023 RMK A01 T01161073  RH  026%=      5-min Rain = 0
KEN1 192255Z 11003KT 11/M08 A3023 RMK A01 T01141077  RH  026%=      5-min Rain = 0
KEN1 192256Z 11002KT 11/M08 A3023 RMK A01 T01121075  RH  026%=      5-min Rain = 0
KEN1 192257Z 10002KT 11/M07 A3023 RMK A01 T01121074  RH  026%=      5-min Rain = 0
KEN1 192258Z 11001KT 11/M07 A3023 RMK A01 T01121073  RH  027%=      5-min Rain = 0
KEN1 192259Z 13002KT 11/M07 A3023 RMK A01 T01121071  RH  027%=      5-min Rain = 0
KEN1 192300Z 15003KT 11/M07 A3023 RMK A01 T01121072  RH  027%=      5-min Rain = 0
KEN1 192301Z 16003KT 11/M07 A3023 RMK A01 T01121071  RH  027%=      5-min Rain = 0
KEN1 192302Z 13003KT 11/M07 A3023 RMK A01 T01131072  RH  027%=      5-min Rain = 0
KEN1 192303Z 14003KT 11/M07 A3023 RMK A01 T01121072  RH  027%=      5-min Rain = 0
KEN1 192304Z 14002KT 11/M07 A3023 RMK A01 T01121074  RH  026%=      5-min Rain = 0
KEN1 192305Z 16003KT 11/M07 A3023 RMK A01 T01121074  RH  026%=      5-min Rain = 0
KEN1 192306Z 15004KT 11/M07 A3023 RMK A01 T01121074  RH  026%=      5-min Rain = 0
KEN1 192307Z 15005KT 11/M07 A3023 RMK A01 T01121071  RH  027%=      5-min Rain = 0
KEN1 192308Z 15004KT 11/M08 A3023 RMK A01 T01111078  RH  026%=      5-min Rain = 0
KEN1 192309Z 17002KT 11/M08 A3023 RMK A01 T01111076  RH  026%=      5-min Rain = 0
KEN1 192310Z 18001KT 11/M07 A3023 RMK A01 T01111073  RH  027%=      5-min Rain = 0
KEN1 192311Z 14001KT 11/M08 A3023 RMK A01 T01121075  RH  026%=      5-min Rain = 0
KEN1 192312Z 14001KT 11/M08 A3023 RMK A01 T01121079  RH  025%=      5-min Rain = 0
KEN1 192313Z 13002KT 11/M08 A3023 RMK A01 T01121079  RH  025%=      5-min Rain = 0
KEN1 192314Z 12002KT 11/M08 A3023 RMK A01 T01131077  RH  026%=      5-min Rain = 0
KEN1 192315Z 15002KT 11/M08 A3023 RMK A01 T01131076  RH  026%=      5-min Rain = 0
KEN1 192316Z 15002KT 11/M08 A3023 RMK A01 T01131077  RH  026%=      5-min Rain = 0
KEN1 192317Z 15003KT 11/M08 A3023 RMK A01 T01131078  RH  025%=      5-min Rain = 0
KEN1 192318Z 16003KT 11/M08 A3023 RMK A01 T01131075  RH  026%=      5-min Rain = 0
KEN1 192319Z 16005KT 11/M07 A3023 RMK A01 T01121071  RH  027%=      5-min Rain = 0
KEN1 192320Z 16005KT 11/M07 A3023 RMK A01 T01121069  RH  027%=      5-min Rain = 0
KEN1 192321Z 15004KT 11/M07 A3023 RMK A01 T01111073  RH  027%=      5-min Rain = 0
KEN1 192322Z 14004KT 11/M07 A3023 RMK A01 T01101068  RH  028%=      5-min Rain = 0
KEN1 192323Z 13004KT 11/M07 A3023 RMK A01 T01101070  RH  028%=      5-min Rain = 0
KEN1 192324Z 13004KT 11/M07 A3023 RMK A01 T01091070  RH  028%=      5-min Rain = 0
KEN1 192325Z 12004KT 11/M07 A3023 RMK A01 T01081070  RH  028%=      5-min Rain = 0
KEN1 192326Z 11004KT 11/M07 A3023 RMK A01 T01081070  RH  028%=      5-min Rain = 0
KEN1 192327Z 11004KT 11/M07 A3023 RMK A01 T01061070  RH  028%=      5-min Rain = 0
KEN1 192328Z 11004KT 11/M07 A3023 RMK A01 T01061072  RH  028%=      5-min Rain = 0
KEN1 192329Z 11003KT 11/M07 A3023 RMK A01 T01051072  RH  028%=      5-min Rain = 0
KEN1 192330Z 12004KT 11/M07 A3023 RMK A01 T01051069  RH  029%=      5-min Rain = 0
KEN1 192331Z 11004KT 10/M07 A3023 RMK A01 T01041070  RH  029%=      5-min Rain = 0
KEN1 192332Z 12004KT 10/M07 A3023 RMK A01 T01041071  RH  029%=      5-min Rain = 0
KEN1 192333Z 12004KT 10/M07 A3023 RMK A01 T01031070  RH  029%=      5-min Rain = 0
KEN1 192334Z 12004KT 10/M07 A3023 RMK A01 T01031071  RH  029%=      5-min Rain = 0
KEN1 192335Z 13005KT 10/M07 A3023 RMK A01 T01031068  RH  029%=      5-min Rain = 0
KEN1 192336Z 13005KT 10/M07 A3023 RMK A01 T01021066  RH  030%=      5-min Rain = 0
KEN1 192337Z 13005KT 10/M06 A3023 RMK A01 T01011064  RH  031%=      5-min Rain = 0
KEN1 192338Z 13005KT 10/M06 A3023 RMK A01 T01011064  RH  031%=      5-min Rain = 0
KEN1 192339Z 13005KT 10/M06 A3023 RMK A01 T01001064  RH  031%=      5-min Rain = 0
KEN1 192340Z 13005KT 10/M06 A3023 RMK A01 T00991064  RH  031%=      5-min Rain = 0
KEN1 192341Z 13005KT 10/M06 A3023 RMK A01 T00981064  RH  031%=      5-min Rain = 0
KEN1 192342Z 12005KT 10/M07 A3023 RMK A01 T00971065  RH  031%=      5-min Rain = 0
KEN1 192343Z 12004KT 10/M07 A3023 RMK A01 T00961065  RH  031%=      5-min Rain = 0
KEN1 192344Z 13004KT 10/M07 A3023 RMK A01 T00961065  RH  031%=      5-min Rain = 0
KEN1 192345Z 12004KT 10/M07 A3023 RMK A01 T00951065  RH  032%=      5-min Rain = 0
KEN1 192346Z 12004KT 09/M07 A3023 RMK A01 T00941065  RH  032%=      5-min Rain = 0
KEN1 192347Z 13005KT 09/M07 A3023 RMK A01 T00931066  RH  032%=      5-min Rain = 0
KEN1 192348Z 13005KT 09/M07 A3023 RMK A01 T00931066  RH  032%=      5-min Rain = 0
KEN1 192349Z 12005KT 09/M07 A3023 RMK A01 T00921065  RH  032%=      5-min Rain = 0
KEN1 192350Z 13005KT 09/M06 A3023 RMK A01 T00901064  RH  033%=      5-min Rain = 0
KEN1 192351Z 12004KT 09/M06 A3023 RMK A01 T00881064  RH  033%=      5-min Rain = 0
KEN1 192352Z 12004KT 09/M07 A3023 RMK A01 T00871065  RH  033%=      5-min Rain = 0
KEN1 192353Z 12004KT 09/M07 A3023 RMK A01 T00861065  RH  034%=      5-min Rain = 0
KEN1 192354Z 12004KT 09/M07 A3023 RMK A01 T00861065  RH  034%=      5-min Rain = 0
KEN1 192355Z 12004KT 09/M07 A3023 RMK A01 T00871065  RH  034%=      5-min Rain = 0
KEN1 192356Z 12005KT 09/M06 A3023 RMK A01 T00861064  RH  034%=      5-min Rain = 0
KEN1 192357Z 12005KT 09/M06 A3023 RMK A01 T00861063  RH  034%=      5-min Rain = 0
KEN1 192358Z 13006KT 09/M06 A3023 RMK A01 T00851062  RH  035%=      5-min Rain = 0
KEN1 192359Z 13006KT 08/M06 A3023 RMK A01 T00841062  RH  035%=      5-min Rain = 0
KEN1 200000Z 13006KT 08/M06 A3023 RMK A01 T00821062  RH  035%=      5-min Rain = 0
KEN1 200001Z 13006KT 08/M06 A3023 RMK A01 T00801061  RH  036%=      5-min Rain = 0
KEN1 200002Z 13006KT 08/M06 A3023 RMK A01 T00781061  RH  037%=      5-min Rain = 0
KEN1 200003Z 13006KT 08/M06 A3023 RMK A01 T00771060  RH  037%=      5-min Rain = 0
KEN1 200004Z 13006KT 08/M06 A3023 RMK A01 T00751059  RH  038%=      5-min Rain = 0
KEN1 200005Z 13006KT 07/M06 A3023 RMK A01 T00731059  RH  038%=      5-min Rain = 0
KEN1 200006Z 13006KT 07/M06 A3023 RMK A01 T00721060  RH  038%=      5-min Rain = 0
KEN1 200007Z 13006KT 07/M06 A3023 RMK A01 T00711060  RH  039%=      5-min Rain = 0
KEN1 200008Z 13006KT 07/M06 A3023 RMK A01 T00691059  RH  040%=      5-min Rain = 0
KEN1 200009Z 13006KT 07/M06 A3023 RMK A01 T00681059  RH  040%=      5-min Rain = 0
KEN1 200010Z 13005KT 07/M06 A3023 RMK A01 T00681059  RH  040%=      5-min Rain = 0
KEN1 200011Z 13005KT 07/M06 A3023 RMK A01 T00681059  RH  040%=      5-min Rain = 0
KEN1 200012Z 13005KT 07/M06 A3023 RMK A01 T00671060  RH  040%=      5-min Rain = 0
KEN1 200013Z 12005KT 07/M06 A3023 RMK A01 T00681061  RH  039%=      5-min Rain = 0
KEN1 200014Z 13006KT 07/M06 A3023 RMK A01 T00691059  RH  040%=      5-min Rain = 0
KEN1 200015Z 13006KT 07/M06 A3023 RMK A01 T00681059  RH  040%=      5-min Rain = 0
KEN1 200016Z 13006KT 07/M06 A3023 RMK A01 T00681059  RH  040%=      5-min Rain = 0
KEN1 200017Z 13006KT 07/M06 A3023 RMK A01 T00671060  RH  040%=      5-min Rain = 0
KEN1 200018Z 13006KT 07/M06 A3023 RMK A01 T00661061  RH  040%=      5-min Rain = 0
KEN1 200019Z 13006KT 07/M06 A3023 RMK A01 T00651061  RH  040%=      5-min Rain = 0
KEN1 200020Z 13006KT 06/M06 A3023 RMK A01 T00631061  RH  041%=      5-min Rain = 0
KEN1 200021Z 13007KT 06/M06 A3023 RMK A01 T00621061  RH  041%=      5-min Rain = 0
KEN1 200022Z 12006KT 06/M06 A3023 RMK A01 T00601060  RH  042%=      5-min Rain = 0
KEN1 200023Z 12006KT 06/M06 A3023 RMK A01 T00571059  RH  043%=      5-min Rain = 0
KEN1 200024Z 12007KT 05/M06 A3022 RMK A01 T00531059  RH  044%=      5-min Rain = 0
KEN1 200025Z 12007KT 05/M06 A3022 RMK A01 T00511058  RH  045%=      5-min Rain = 0
KEN1 200026Z 12007KT 05/M06 A3022 RMK A01 T00511057  RH  046%=      5-min Rain = 0
KEN1 200027Z 11007KT 05/M06 A3022 RMK A01 T00501057  RH  046%=      5-min Rain = 0
KEN1 200028Z 11007KT 05/M06 A3022 RMK A01 T00491057  RH  046%=      5-min Rain = 0
KEN1 200029Z 12008KT 05/M06 A3022 RMK A01 T00491057  RH  046%=      5-min Rain = 0
KEN1 200030Z 12008KT 05/M06 A3022 RMK A01 T00481057  RH  047%=      5-min Rain = 0
KEN1 200031Z 12008KT 05/M06 A3022 RMK A01 T00471057  RH  047%=      5-min Rain = 0
KEN1 200032Z 12008KT 05/M06 A3022 RMK A01 T00461056  RH  048%=      5-min Rain = 0
KEN1 200033Z 12008KT 05/M05 A3022 RMK A01 T00451054  RH  049%=      5-min Rain = 0
KEN1 200034Z 12008KT 04/M05 A3022 RMK A01 T00441053  RH  049%=      5-min Rain = 0
KEN1 200035Z 12008KT 04/M05 A3022 RMK A01 T00431051  RH  050%=      5-min Rain = 0
KEN1 200036Z 12008KT 04/M05 A3022 RMK A01 T00431050  RH  051%=      5-min Rain = 0
KEN1 200037Z 12008KT 04/M05 A3021 RMK A01 T00411050  RH  052%=      5-min Rain = 0
KEN1 200038Z 12008KT 04/M05 A3021 RMK A01 T00401049  RH  053%=      5-min Rain = 0
KEN1 200039Z 12008KT 04/M05 A3021 RMK A01 T00381048  RH  053%=      5-min Rain = 0
KEN1 200040Z 12008KT 04/M05 A3021 RMK A01 T00361047  RH  054%=      5-min Rain = 0
KEN1 200041Z 12008KT 04/M05 A3021 RMK A01 T00351046  RH  055%=      5-min Rain = 0
KEN1 200042Z 12008KT 04/M05 A3021 RMK A01 T00351046  RH  056%=      5-min Rain = 0
KEN1 200043Z 12008KT 03/M05 A3021 RMK A01 T00341045  RH  056%=      5-min Rain = 0
KEN1 200044Z 12008KT 03/M05 A3021 RMK A01 T00341045  RH  056%=      5-min Rain = 0
KEN1 200045Z 12008KT 03/M05 A3021 RMK A01 T00331045  RH  057%=      5-min Rain = 0
KEN1 200046Z 12008KT 03/M04 A3021 RMK A01 T00331044  RH  057%=      5-min Rain = 0
KEN1 200047Z 12008KT 03/M04 A3021 RMK A01 T00331043  RH  057%=      5-min Rain = 0
KEN1 200048Z 13008KT 03/M04 A3021 RMK A01 T00321042  RH  058%=      5-min Rain = 0
KEN1 200049Z 13008KT 03/M04 A3021 RMK A01 T00321042  RH  059%=      5-min Rain = 0
KEN1 200050Z 13008KT 03/M04 A3021 RMK A01 T00311041  RH  059%=      5-min Rain = 0
KEN1 200051Z 12007KT 03/M04 A302 RMK A01 T00291040  RH  060%=      5-min Rain = 0
KEN1 200052Z 12007KT 03/M04 A302 RMK A01 T00281040  RH  061%=      5-min Rain = 0
KEN1 200053Z 12007KT 03/M04 A302 RMK A01 T00271039  RH  062%=      5-min Rain = 0
KEN1 200054Z 12007KT 03/M04 A302 RMK A01 T00261039  RH  062%=      5-min Rain = 0
KEN1 200055Z 12007KT 03/M04 A302 RMK A01 T00251039  RH  063%=      5-min Rain = 0
KEN1 200056Z 12007KT 02/M04 A302 RMK A01 T00241039  RH  063%=      5-min Rain = 0
KEN1 200057Z 12006KT 02/M04 A302 RMK A01 T00241039  RH  063%=      5-min Rain = 0
KEN1 200058Z 12006KT 02/M04 A302 RMK A01 T00231039  RH  064%=      5-min Rain = 0
KEN1 200059Z 12005KT 02/M04 A302 RMK A01 T00221039  RH  064%=      5-min Rain = 0
KEN1 200100Z 12005KT 02/M04 A3021 RMK A01 T00211040  RH  064%=      5-min Rain = 0
KEN1 200101Z 13004KT 02/M04 A3021 RMK A01 T00201039  RH  065%=      5-min Rain = 0
KEN1 200102Z 13004KT 02/M04 A3021 RMK A01 T00191039  RH  066%=      5-min Rain = 0
KEN1 200103Z 13005KT 02/M04 A3021 RMK A01 T00191038  RH  066%=      5-min Rain = 0
KEN1 200104Z 13006KT 02/M04 A3021 RMK A01 T00201038  RH  065%=      5-min Rain = 0
KEN1 200105Z 14005KT 02/M04 A3022 RMK A01 T00221038  RH  064%=      5-min Rain = 0
KEN1 200106Z 14005KT 02/M04 A3022 RMK A01 T00221039  RH  064%=      5-min Rain = 0
KEN1 200107Z 14005KT 02/M04 A3022 RMK A01 T00221039  RH  064%=      5-min Rain = 0
KEN1 200108Z 14005KT 02/M04 A3021 RMK A01 T00211039  RH  064%=      5-min Rain = 0
KEN1 200109Z 14006KT 02/M04 A3021 RMK A01 T00201040  RH  065%=      5-min Rain = 0
KEN1 200110Z 14006KT 02/M04 A3021 RMK A01 T00191039  RH  065%=      5-min Rain = 0
KEN1 200111Z 13006KT 02/M04 A3021 RMK A01 T00191039  RH  065%=      5-min Rain = 0
KEN1 200112Z 13006KT 02/M04 A3021 RMK A01 T00171040  RH  066%=      5-min Rain = 0
KEN1 200113Z 13006KT 02/M04 A3021 RMK A01 T00161040  RH  066%=      5-min Rain = 0
KEN1 200114Z 13006KT 01/M04 A3022 RMK A01 T00141040  RH  067%=      5-min Rain = 0
KEN1 200115Z 13006KT 01/M04 A3022 RMK A01 T00131040  RH  068%=      5-min Rain = 0
KEN1 200116Z 13006KT 01/M04 A3022 RMK A01 T00131040  RH  068%=      5-min Rain = 0
KEN1 200117Z 13006KT 01/M04 A3023 RMK A01 T00121040  RH  068%=      5-min Rain = 0
KEN1 200118Z 13006KT 01/M04 A3023 RMK A01 T00131040  RH  068%=      5-min Rain = 0
KEN1 200119Z 13007KT 01/M04 A3023 RMK A01 T00141040  RH  067%=      5-min Rain = 0
KEN1 200120Z 13007KT 02/M04 A3023 RMK A01 T00151040  RH  067%=      5-min Rain = 0
KEN1 200121Z 13007KT 02/M04 A3023 RMK A01 T00161040  RH  066%=      5-min Rain = 0
KEN1 200122Z 13007KT 02/M04 A3023 RMK A01 T00161040  RH  066%=      5-min Rain = 0
KEN1 200123Z 13007KT 02/M04 A3023 RMK A01 T00161040  RH  066%=      5-min Rain = 0
KEN1 200124Z 13007KT 02/M04 A3023 RMK A01 T00161040  RH  066%=      5-min Rain = 0
KEN1 200125Z 13007KT 02/M04 A3023 RMK A01 T00161040  RH  066%=      5-min Rain = 0
KEN1 200126Z 14007KT 02/M04 A3024 RMK A01 T00161039  RH  067%=      5-min Rain = 0
KEN1 200127Z 14007KT 02/M04 A3024 RMK A01 T00151039  RH  067%=      5-min Rain = 0
KEN1 200128Z 14007KT 02/M04 A3024 RMK A01 T00151038  RH  068%=      5-min Rain = 0
KEN1 200129Z 14006KT 02/M04 A3024 RMK A01 T00151038  RH  068%=      5-min Rain = 0
KEN1 200130Z 14005KT 02/M04 A3024 RMK A01 T00151038  RH  068%=      5-min Rain = 0
KEN1 200131Z 14005KT 02/M04 A3024 RMK A01 T00151037  RH  068%=      5-min Rain = 0
KEN1 200132Z 14004KT 02/M04 A3024 RMK A01 T00151037  RH  068%=      5-min Rain = 0
KEN1 200133Z 14004KT 02/M04 A3024 RMK A01 T00151037  RH  068%=      5-min Rain = 0
KEN1 200134Z 14004KT 01/M04 A3024 RMK A01 T00141037  RH  069%=      5-min Rain = 0
KEN1 200135Z 14005KT 01/M04 A3024 RMK A01 T00141038  RH  069%=      5-min Rain = 0
KEN1 200136Z 14005KT 01/M04 A3024 RMK A01 T00141038  RH  068%=      5-min Rain = 0
KEN1 200137Z 13005KT 01/M04 A3023 RMK A01 T00141038  RH  068%=      5-min Rain = 0
KEN1 200138Z 13006KT 02/M04 A3023 RMK A01 T00151037  RH  068%=      5-min Rain = 0
KEN1 200139Z 13007KT 02/M04 A3023 RMK A01 T00151037  RH  068%=      5-min Rain = 0
KEN1 200140Z 13007KT 02/M04 A3023 RMK A01 T00151036  RH  069%=      5-min Rain = 0
KEN1 200141Z 13007KT 02/M04 A3023 RMK A01 T00151035  RH  069%=      5-min Rain = 0
KEN1 200142Z 14006KT 01/M04 A3023 RMK A01 T00141035  RH  070%=      5-min Rain = 0
KEN1 200143Z 14006KT 01/M04 A3023 RMK A01 T00141035  RH  070%=      5-min Rain = 0
KEN1 200144Z 14005KT 01/M04 A3023 RMK A01 T00131035  RH  071%=      5-min Rain = 0
KEN1 200145Z 15005KT 01/M04 A3023 RMK A01 T00131035  RH  071%=      5-min Rain = 0
KEN1 200146Z 16004KT 01/M04 A3023 RMK A01 T00121035  RH  071%=      5-min Rain = 0
KEN1 200147Z 17004KT 01/M04 A3023 RMK A01 T00111036  RH  071%=      5-min Rain = 0
KEN1 200148Z 17005KT 01/M04 A3023 RMK A01 T00111035  RH  071%=      5-min Rain = 0
KEN1 200149Z 17006KT 01/M04 A3023 RMK A01 T00111035  RH  072%=      5-min Rain = 0
KEN1 200150Z 17007KT 01/M03 A3023 RMK A01 T00101034  RH  073%=      5-min Rain = 0
KEN1 200151Z 17007KT 01/M03 A3023 RMK A01 T00091033  RH  074%=      5-min Rain = 0
KEN1 200152Z 16007KT 01/M03 A3023 RMK A01 T00081031  RH  075%=      5-min Rain = 0
KEN1 200153Z 16007KT 01/M03 A3023 RMK A01 T00081029  RH  076%=      5-min Rain = 0
KEN1 200154Z 16007KT 01/M03 A3023 RMK A01 T00081029  RH  076%=      5-min Rain = 0
KEN1 200155Z 16008KT 01/M03 A3023 RMK A01 T00091028  RH  076%=      5-min Rain = 0
KEN1 200156Z 17008KT 01/M03 A3023 RMK A01 T00111027  RH  076%=      5-min Rain = 0
KEN1 200157Z 16008KT 01/M03 A3023 RMK A01 T00111027  RH  076%=      5-min Rain = 0
KEN1 200158Z 17008KT 01/M03 A3023 RMK A01 T00121026  RH  076%=      5-min Rain = 0
KEN1 200159Z 17008KT 01/M03 A3023 RMK A01 T00131026  RH  075%=      5-min Rain = 0
KEN1 200200Z 17006KT 01/M03 A3024 RMK A01 T00131026  RH  075%=      5-min Rain = 0
KEN1 200201Z 18006KT 01/M03 A3024 RMK A01 T00131026  RH  075%=      5-min Rain = 0
KEN1 200202Z 17006KT 01/M03 A3024 RMK A01 T00121028  RH  075%=      5-min Rain = 0
KEN1 200203Z 17006KT 01/M03 A3024 RMK A01 T00111028  RH  075%=      5-min Rain = 0
KEN1 200204Z 17006KT 01/M03 A3023 RMK A01 T00111028  RH  075%=      5-min Rain = 0
KEN1 200205Z 17007KT 01/M03 A3023 RMK A01 T00111028  RH  076%=      5-min Rain = 0
KEN1 200206Z 17006KT 01/M03 A3023 RMK A01 T00101028  RH  076%=      5-min Rain = 0
KEN1 200207Z 17006KT 01/M03 A3023 RMK A01 T00101028  RH  076%=      5-min Rain = 0
KEN1 200208Z 17006KT 01/M03 A3023 RMK A01 T00091028  RH  076%=      5-min Rain = 0
KEN1 200209Z 16006KT 01/M03 A3023 RMK A01 T00091028  RH  077%=      5-min Rain = 0
KEN1 200210Z 16006KT 01/M03 A3023 RMK A01 T00081027  RH  077%=      5-min Rain = 0
KEN1 200211Z 16007KT 01/M03 A3023 RMK A01 T00081027  RH  077%=      5-min Rain = 0
KEN1 200212Z 16007KT 01/M03 A3022 RMK A01 T00081027  RH  078%=      5-min Rain = 0
KEN1 200213Z 16007KT 01/M03 A3022 RMK A01 T00081026  RH  078%=      5-min Rain = 0
KEN1 200214Z 17007KT 01/M03 A3022 RMK A01 T00091025  RH  078%=      5-min Rain = 0
KEN1 200215Z 17008KT 01/M02 A3022 RMK A01 T00101024  RH  078%=      5-min Rain = 0
KEN1 200216Z 16008KT 01/M02 A3022 RMK A01 T00101024  RH  078%=      5-min Rain = 0
KEN1 200217Z 16008KT 01/M02 A3022 RMK A01 T00101024  RH  078%=      5-min Rain = 0
KEN1 200218Z 16008KT 01/M02 A3021 RMK A01 T00111024  RH  077%=      5-min Rain = 0
KEN1 200219Z 16008KT 01/M02 A3021 RMK A01 T00111024  RH  077%=      5-min Rain = 0
KEN1 200220Z 17007KT 01/M02 A3022 RMK A01 T00111024  RH  077%=      5-min Rain = 0
KEN1 200221Z 17007KT 01/M02 A3022 RMK A01 T00111024  RH  077%=      5-min Rain = 0
KEN1 200222Z 17008KT 01/M02 A3022 RMK A01 T00111024  RH  078%=      5-min Rain = 0
KEN1 200223Z 17008KT 01/M02 A3022 RMK A01 T00111023  RH  078%=      5-min Rain = 0
KEN1 200224Z 16008KT 01/M02 A3022 RMK A01 T00121023  RH  078%=      5-min Rain = 0
KEN1 200225Z 16009KT 01/M02 A3022 RMK A01 T00131023  RH  077%=      5-min Rain = 0
KEN1 200226Z 16007KT 01/M02 A3022 RMK A01 T00141023  RH  077%=      5-min Rain = 0
KEN1 200227Z 17007KT 01/M02 A3022 RMK A01 T00141023  RH  076%=      5-min Rain = 0
KEN1 200228Z 17007KT 01/M02 A3022 RMK A01 T00141023  RH  076%=      5-min Rain = 0
KEN1 200229Z 17007KT 01/M03 A3022 RMK A01 T00121025  RH  076%=      5-min Rain = 0
KEN1 200230Z 17008KT 01/M03 A3022 RMK A01 T00111025  RH  077%=      5-min Rain = 0
KEN1 200231Z 16008KT 01/M03 A3022 RMK A01 T00101025  RH  077%=      5-min Rain = 0
KEN1 200232Z 16008KT 01/M03 A3022 RMK A01 T00101025  RH  078%=      5-min Rain = 0
KEN1 200233Z 16008KT 01/M03 A3022 RMK A01 T00091025  RH  078%=      5-min Rain = 0
KEN1 200234Z 16009KT 01/M03 A3022 RMK A01 T00101025  RH  078%=      5-min Rain = 0
KEN1 200235Z 16009KT 01/M02 A3022 RMK A01 T00111024  RH  078%=      5-min Rain = 0
KEN1 200236Z 16009KT 01/M02 A3022 RMK A01 T00111024  RH  078%=      5-min Rain = 0
KEN1 200237Z 16009KT 01/M02 A3022 RMK A01 T00131023  RH  077%=      5-min Rain = 0
KEN1 200238Z 16008KT 01/M02 A3022 RMK A01 T00141022  RH  077%=      5-min Rain = 0
KEN1 200239Z 16008KT 02/M02 A3022 RMK A01 T00151022  RH  076%=      5-min Rain = 0
KEN1 200240Z 16008KT 02/M02 A3022 RMK A01 T00151022  RH  076%=      5-min Rain = 0
KEN1 200241Z 16009KT 02/M02 A3022 RMK A01 T00161022  RH  076%=      5-min Rain = 0
KEN1 200242Z 15009KT 02/M02 A3022 RMK A01 T00151022  RH  076%=      5-min Rain = 0
KEN1 200243Z 16009KT 02/M02 A3022 RMK A01 T00161022  RH  076%=      5-min Rain = 0
KEN1 200244Z 15008KT 02/M02 A3022 RMK A01 T00161021  RH  076%=      5-min Rain = 0
KEN1 200245Z 15009KT 02/M02 A3022 RMK A01 T00161022  RH  076%=      5-min Rain = 0
KEN1 200246Z 15009KT 02/M02 A3022 RMK A01 T00171022  RH  076%=      5-min Rain = 0
KEN1 200247Z 15009KT 02/M02 A3022 RMK A01 T00181022  RH  075%=      5-min Rain = 0
KEN1 200248Z 15008KT 02/M02 A3022 RMK A01 T00181022  RH  075%=      5-min Rain = 0
KEN1 200249Z 15008KT 02/M02 A3022 RMK A01 T00181022  RH  075%=      5-min Rain = 0
KEN1 200250Z 15008KT 02/M02 A3022 RMK A01 T00181021  RH  075%=      5-min Rain = 0
KEN1 200251Z 15008KT 02/M02 A3022 RMK A01 T00181021  RH  075%=      5-min Rain = 0
KEN1 200252Z 15008KT 02/M02 A3022 RMK A01 T00181021  RH  075%=      5-min Rain = 0
KEN1 200253Z 15007KT 02/M02 A3022 RMK A01 T00181021  RH  075%=      5-min Rain = 0
KEN1 200254Z 15008KT 02/M02 A3022 RMK A01 T00181021  RH  075%=      5-min Rain = 0
KEN1 200255Z 15008KT 02/M02 A3022 RMK A01 T00181022  RH  075%=      5-min Rain = 0
KEN1 200256Z 15008KT 02/M02 A3022 RMK A01 T00181022  RH  075%=      5-min Rain = 0
KEN1 200257Z 15008KT 02/M02 A3022 RMK A01 T00171022  RH  075%=      5-min Rain = 0
KEN1 200258Z 15008KT 02/M02 A3022 RMK A01 T00171022  RH  075%=      5-min Rain = 0
KEN1 200259Z 15007KT 02/M02 A3022 RMK A01 T00161022  RH  076%=      5-min Rain = 0
KEN1 200300Z 15007KT 02/M02 A3022 RMK A01 T00151022  RH  076%=      5-min Rain = 0
KEN1 200301Z 15007KT 02/M02 A3022 RMK A01 T00151022  RH  076%=      5-min Rain = 0
KEN1 200302Z 15007KT 02/M02 A3022 RMK A01 T00151022  RH  076%=      5-min Rain = 0
KEN1 200303Z 15007KT 02/M02 A3023 RMK A01 T00151022  RH  077%=      5-min Rain = 0
KEN1 200304Z 15007KT 02/M02 A3023 RMK A01 T00151022  RH  077%=      5-min Rain = 0
KEN1 200305Z 15007KT 01/M02 A3023 RMK A01 T00141022  RH  077%=      5-min Rain = 0
KEN1 200306Z 16006KT 01/M02 A3023 RMK A01 T00141022  RH  077%=      5-min Rain = 0
KEN1 200307Z 16006KT 01/M02 A3023 RMK A01 T00131023  RH  077%=      5-min Rain = 0
KEN1 200308Z 16006KT 01/M02 A3023 RMK A01 T00121023  RH  077%=      5-min Rain = 0
KEN1 200309Z 16006KT 01/M02 A3023 RMK A01 T00121023  RH  077%=      5-min Rain = 0
KEN1 200310Z 16005KT 01/M02 A3023 RMK A01 T00111023  RH  078%=      5-min Rain = 0
KEN1 200311Z 15005KT 01/M02 A3023 RMK A01 T00101024  RH  078%=      5-min Rain = 0
KEN1 200312Z 15006KT 01/M02 A3023 RMK A01 T00091024  RH  078%=      5-min Rain = 0
KEN1 200313Z 15006KT 01/M03 A3022 RMK A01 T00081025  RH  079%=      5-min Rain = 0
KEN1 200314Z 15006KT 01/M03 A3022 RMK A01 T00071026  RH  079%=      5-min Rain = 0
KEN1 200315Z 15007KT 01/M03 A3022 RMK A01 T00061026  RH  079%=      5-min Rain = 0
KEN1 200316Z 15007KT 01/M03 A3022 RMK A01 T00051026  RH  080%=      5-min Rain = 0
KEN1 200317Z 15007KT 00/M03 A3022 RMK A01 T00041026  RH  080%=      5-min Rain = 0
KEN1 200318Z 15007KT 00/M03 A3023 RMK A01 T00031026  RH  081%=      5-min Rain = 0
KEN1 200319Z 15007KT 00/M03 A3023 RMK A01 T00031026  RH  081%=      5-min Rain = 0
KEN1 200320Z 15006KT 00/M03 A3022 RMK A01 T00031026  RH  081%=      5-min Rain = 0
KEN1 200321Z 14006KT 00/M03 A3022 RMK A01 T00031026  RH  081%=      5-min Rain = 0
KEN1 200322Z 14006KT 00/M03 A3022 RMK A01 T00031027  RH  081%=      5-min Rain = 0
KEN1 200323Z 14006KT 00/M03 A3022 RMK A01 T00021027  RH  081%=      5-min Rain = 0
KEN1 200324Z 14006KT 00/M03 A3022 RMK A01 T00021027  RH  081%=      5-min Rain = 0
KEN1 200325Z 15007KT 00/M03 A3022 RMK A01 T00021027  RH  081%=      5-min Rain = 0
KEN1 200326Z 15007KT 00/M03 A3022 RMK A01 T00011027  RH  081%=      5-min Rain = 0
KEN1 200327Z 15007KT 00/M03 A3022 RMK A01 T00011027  RH  081%=      5-min Rain = 0
KEN1 200328Z 15007KT 00/03 A3022 RMK A01 T00000-28  RH  082%=      5-min Rain = 0
KEN1 200329Z 15007KT M00/M03 A3022 RMK A01 T10011028  RH  082%=      5-min Rain = 0
KEN1 200330Z 15007KT M00/M03 A3022 RMK A01 T10021029  RH  082%=      5-min Rain = 0
KEN1 200331Z 15007KT M00/M03 A3021 RMK A01 T10021029  RH  082%=      5-min Rain = 0
KEN1 200332Z 15008KT M00/M03 A3021 RMK A01 T10041030  RH  082%=      5-min Rain = 0
KEN1 200333Z 15008KT M01/M03 A3021 RMK A01 T10051030  RH  083%=      5-min Rain = 0
KEN1 200334Z 15008KT M01/M03 A3021 RMK A01 T10051030  RH  083%=      5-min Rain = 0
KEN1 200335Z 15008KT M01/M03 A3021 RMK A01 T10051029  RH  084%=      5-min Rain = 0
KEN1 200336Z 16008KT M01/M03 A3021 RMK A01 T10051029  RH  084%=      5-min Rain = 0
KEN1 200337Z 16008KT M01/M03 A3021 RMK A01 T10051029  RH  084%=      5-min Rain = 0
KEN1 200338Z 16008KT M01/M03 A3021 RMK A01 T10051028  RH  084%=      5-min Rain = 0
KEN1 200339Z 16008KT M00/M03 A3021 RMK A01 T10041028  RH  084%=      5-min Rain = 0
KEN1 200340Z 16008KT M00/M03 A3021 RMK A01 T10031027  RH  084%=      5-min Rain = 0
KEN1 200341Z 16008KT M00/M03 A3021 RMK A01 T10011026  RH  084%=      5-min Rain = 0
KEN1 200342Z 16008KT 00/03 A3021 RMK A01 T00-00-25  RH  083%=      5-min Rain = 0
KEN1 200343Z 16009KT 00/M02 A3021 RMK A01 T00011024  RH  083%=      5-min Rain = 0
KEN1 200344Z 16009KT 00/M02 A3021 RMK A01 T00021024  RH  083%=      5-min Rain = 0
KEN1 200345Z 16010KT 00/M02 A3021 RMK A01 T00041023  RH  082%=      5-min Rain = 0
KEN1 200346Z 16009KT 01/M02 A3021 RMK A01 T00051023  RH  082%=      5-min Rain = 0
KEN1 200347Z 16009KT 01/M02 A3021 RMK A01 T00061023  RH  081%=      5-min Rain = 0
KEN1 200348Z 16009KT 01/M02 A3021 RMK A01 T00061023  RH  081%=      5-min Rain = 0
KEN1 200349Z 16008KT 01/M02 A3021 RMK A01 T00071023  RH  081%=      5-min Rain = 0
KEN1 200350Z 16008KT 01/M02 A3022 RMK A01 T00071023  RH  080%=      5-min Rain = 0
KEN1 200351Z 16008KT 01/M02 A3022 RMK A01 T00071023  RH  080%=      5-min Rain = 0
KEN1 200352Z 16008KT 01/M02 A3022 RMK A01 T00071023  RH  080%=      5-min Rain = 0
KEN1 200353Z 17008KT 01/M02 A3022 RMK A01 T00071023  RH  080%=      5-min Rain = 0
KEN1 200354Z 17007KT 01/M02 A3022 RMK A01 T00071023  RH  080%=      5-min Rain = 0
KEN1 200355Z 17007KT 01/M02 A3021 RMK A01 T00071023  RH  080%=      5-min Rain = 0
KEN1 200356Z 17007KT 01/M02 A3021 RMK A01 T00071023  RH  081%=      5-min Rain = 0
KEN1 200357Z 17008KT 01/M02 A3021 RMK A01 T00061023  RH  081%=      5-min Rain = 0
KEN1 200358Z 17008KT 01/M02 A3021 RMK A01 T00051024  RH  081%=      5-min Rain = 0
KEN1 200359Z 17008KT 00/M02 A3022 RMK A01 T00041024  RH  081%=      5-min Rain = 0
KEN1 200400Z 17007KT 00/M02 A3022 RMK A01 T00031024  RH  082%=      5-min Rain = 0
KEN1 200401Z 17007KT 00/M02 A3022 RMK A01 T00041024  RH  082%=      5-min Rain = 0
KEN1 200402Z 17007KT 00/M02 A3022 RMK A01 T00031024  RH  082%=      5-min Rain = 0
KEN1 200403Z 17007KT 00/M02 A3022 RMK A01 T00031024  RH  082%=      5-min Rain = 0
KEN1 200404Z 17006KT 00/M02 A3022 RMK A01 T00021024  RH  082%=      5-min Rain = 0
KEN1 200405Z 17007KT 00/M02 A3022 RMK A01 T00021024  RH  083%=      5-min Rain = 0
KEN1 200406Z 17007KT 00/M02 A3022 RMK A01 T00011024  RH  083%=      5-min Rain = 0
KEN1 200407Z 17006KT 00/M02 A3022 RMK A01 T00011024  RH  083%=      5-min Rain = 0
KEN1 200408Z 17006KT 00/M02 A3022 RMK A01 T00011024  RH  083%=      5-min Rain = 0
KEN1 200409Z 17007KT 00/M02 A3022 RMK A01 T00011024  RH  083%=      5-min Rain = 0
KEN1 200410Z 17007KT 00/03 A3022 RMK A01 T00000-25  RH  083%=      5-min Rain = 0
KEN1 200411Z 16007KT 00/02 A3022 RMK A01 T00000-24  RH  083%=      5-min Rain = 0
KEN1 200412Z 16007KT 00/03 A3022 RMK A01 T00000-25  RH  083%=      5-min Rain = 0
KEN1 200413Z 16007KT 00/M02 A3021 RMK A01 T00011024  RH  084%=      5-min Rain = 0
KEN1 200414Z 16008KT 00/M02 A3021 RMK A01 T00011024  RH  084%=      5-min Rain = 0
KEN1 200415Z 16008KT 00/M02 A3021 RMK A01 T00011023  RH  084%=      5-min Rain = 0
KEN1 200416Z 15009KT 00/M02 A3021 RMK A01 T00011023  RH  084%=      5-min Rain = 0
KEN1 200417Z 15008KT 00/M02 A3021 RMK A01 T00021022  RH  084%=      5-min Rain = 0
KEN1 200418Z 15008KT 00/M02 A3021 RMK A01 T00021022  RH  084%=      5-min Rain = 0
KEN1 200419Z 15007KT 00/M02 A3021 RMK A01 T00021022  RH  084%=      5-min Rain = 0
KEN1 200420Z 16007KT 00/M02 A3021 RMK A01 T00031022  RH  083%=      5-min Rain = 0
KEN1 200421Z 16007KT 00/M02 A3021 RMK A01 T00031022  RH  083%=      5-min Rain = 0
KEN1 200422Z 16007KT 00/M02 A302 RMK A01 T00041022  RH  083%=      5-min Rain = 0
KEN1 200423Z 16008KT 00/M02 A302 RMK A01 T00041022  RH  082%=      5-min Rain = 0
KEN1 200424Z 16008KT 00/M02 A302 RMK A01 T00041022  RH  083%=      5-min Rain = 0
KEN1 200425Z 15008KT 01/M02 A302 RMK A01 T00051021  RH  083%=      5-min Rain = 0
KEN1 200426Z 15008KT 01/M02 A302 RMK A01 T00061020  RH  083%=      5-min Rain = 0
KEN1 200427Z 15008KT 01/M02 A302 RMK A01 T00071020  RH  082%=      5-min Rain = 0
KEN1 200428Z 15009KT 01/M02 A302 RMK A01 T00081019  RH  082%=      5-min Rain = 0
KEN1 200429Z 15009KT 01/M02 A3021 RMK A01 T00101018  RH  082%=      5-min Rain = 0
KEN1 200430Z 15010KT 01/M02 A3021 RMK A01 T00121017  RH  081%=      5-min Rain = 0
KEN1 200431Z 15009KT 01/M02 A3021 RMK A01 T00131017  RH  080%=      5-min Rain = 0
KEN1 200432Z 16009KT 01/M02 A3021 RMK A01 T00141017  RH  080%=      5-min Rain = 0
KEN1 200433Z 16009KT 01/M02 A3021 RMK A01 T00141018  RH  079%=      5-min Rain = 0
KEN1 200434Z 16009KT 01/M02 A3021 RMK A01 T00141018  RH  079%=      5-min Rain = 0
KEN1 200435Z 16008KT 02/M02 A3021 RMK A01 T00151017  RH  079%=      5-min Rain = 0
KEN1 200436Z 16008KT 02/M02 A3021 RMK A01 T00161017  RH  079%=      5-min Rain = 0
KEN1 200437Z 16009KT 02/M02 A3021 RMK A01 T00161018  RH  078%=      5-min Rain = 0
KEN1 200438Z 16009KT 02/M02 A3021 RMK A01 T00161018  RH  078%=      5-min Rain = 0
KEN1 200439Z 16009KT 02/M02 A3021 RMK A01 T00161018  RH  078%=      5-min Rain = 0
KEN1 200440Z 16009KT 02/M02 A3021 RMK A01 T00151018  RH  079%=      5-min Rain = 0
KEN1 200441Z 15008KT 01/M02 A302 RMK A01 T00141018  RH  079%=      5-min Rain = 0
KEN1 200442Z 15008KT 01/M02 A302 RMK A01 T00141019  RH  079%=      5-min Rain = 0
KEN1 200443Z 15008KT 01/M02 A302 RMK A01 T00131019  RH  079%=      5-min Rain = 0
KEN1 200444Z 15009KT 01/M02 A302 RMK A01 T00121019  RH  080%=      5-min Rain = 0
KEN1 200445Z 15009KT 01/M02 A302 RMK A01 T00121019  RH  080%=      5-min Rain = 0
KEN1 200446Z 15009KT 01/M02 A3021 RMK A01 T00111019  RH  080%=      5-min Rain = 0
KEN1 200447Z 15010KT 01/M02 A3021 RMK A01 T00111019  RH  080%=      5-min Rain = 0
KEN1 200448Z 15010KT 01/M02 A3021 RMK A01 T00111019  RH  080%=      5-min Rain = 0
KEN1 200449Z 15010KT 01/M02 A3021 RMK A01 T00111019  RH  080%=      5-min Rain = 0
KEN1 200450Z 15011KT 01/M02 A3021 RMK A01 T00111019  RH  081%=      5-min Rain = 0
KEN1 200451Z 15011KT 01/M02 A3021 RMK A01 T00121019  RH  080%=      5-min Rain = 0
KEN1 200452Z 15011KT 01/M02 A3021 RMK A01 T00121019  RH  080%=      5-min Rain = 0
KEN1 200453Z 15011KT 01/M02 A3021 RMK A01 T00131018  RH  079%=      5-min Rain = 0
KEN1 200454Z 15010KT 01/M02 A3021 RMK A01 T00141018  RH  079%=      5-min Rain = 0
KEN1 200455Z 15010KT 02/M02 A3021 RMK A01 T00151018  RH  079%=      5-min Rain = 0
KEN1 200456Z 15010KT 02/M02 A3021 RMK A01 T00151018  RH  078%=      5-min Rain = 0
KEN1 200457Z 15010KT 02/M02 A3021 RMK A01 T00151018  RH  078%=      5-min Rain = 0
KEN1 200458Z 15010KT 02/M02 A3021 RMK A01 T00161018  RH  078%=      5-min Rain = 0
KEN1 200459Z 15010KT 02/M02 A3021 RMK A01 T00161018  RH  078%=      5-min Rain = 0
KEN1 200500Z 15010KT 02/M02 A3021 RMK A01 T00161018  RH  078%=      5-min Rain = 0
KEN1 200501Z 15010KT 02/M02 A3021 RMK A01 T00161018  RH  078%=      5-min Rain = 0
KEN1 200502Z 15010KT 02/M02 A3021 RMK A01 T00151018  RH  078%=      5-min Rain = 0
KEN1 200503Z 15010KT 02/M02 A3021 RMK A01 T00151018  RH  079%=      5-min Rain = 0
KEN1 200504Z 15010KT 02/M02 A3021 RMK A01 T00151018  RH  079%=      5-min Rain = 0
KEN1 200505Z 15010KT 02/M02 A3021 RMK A01 T00161018  RH  078%=      5-min Rain = 0
KEN1 200506Z 16010KT 02/M02 A3021 RMK A01 T00171018  RH  078%=      5-min Rain = 0
KEN1 200507Z 15011KT 02/M02 A3021 RMK A01 T00171018  RH  078%=      5-min Rain = 0
KEN1 200508Z 16011KT 02/M02 A3021 RMK A01 T00171018  RH  077%=      5-min Rain = 0
KEN1 200509Z 15011KT 02/M02 A3021 RMK A01 T00171018  RH  077%=      5-min Rain = 0
KEN1 200510Z 15011KT 02/M02 A3021 RMK A01 T00171018  RH  077%=      5-min Rain = 0
KEN1 200511Z 15011KT 02/M02 A3021 RMK A01 T00171018  RH  077%=      5-min Rain = 0
KEN1 200512Z 15011KT 02/M02 A3021 RMK A01 T00171018  RH  077%=      5-min Rain = 0
KEN1 200513Z 16011KT 02/M02 A3021 RMK A01 T00171018  RH  078%=      5-min Rain = 0
KEN1 200514Z 15010KT 02/M02 A3021 RMK A01 T00161019  RH  078%=      5-min Rain = 0
KEN1 200515Z 15010KT 02/M02 A3021 RMK A01 T00151019  RH  078%=      5-min Rain = 0
KEN1 200516Z 16010KT 02/M02 A3021 RMK A01 T00151019  RH  078%=      5-min Rain = 0
KEN1 200517Z 15009KT 01/M02 A3021 RMK A01 T00141020  RH  079%=      5-min Rain = 0
KEN1 200518Z 16009KT 01/M02 A3022 RMK A01 T00131020  RH  079%=      5-min Rain = 0
KEN1 200519Z 16009KT 01/M02 A3022 RMK A01 T00121020  RH  079%=      5-min Rain = 0
KEN1 200520Z 15009KT 01/M02 A3022 RMK A01 T00121020  RH  079%=      5-min Rain = 0
KEN1 200521Z 15010KT 01/M02 A3022 RMK A01 T00121020  RH  079%=      5-min Rain = 0
KEN1 200522Z 14010KT 01/M02 A3021 RMK A01 T00111020  RH  079%=      5-min Rain = 0
KEN1 200523Z 15011KT 01/M02 A3021 RMK A01 T00111020  RH  079%=      5-min Rain = 0
KEN1 200524Z 15011KT 01/M02 A3021 RMK A01 T00111020  RH  079%=      5-min Rain = 0
KEN1 200525Z 15011KT 01/M02 A3021 RMK A01 T00121020  RH  079%=      5-min Rain = 0
KEN1 200526Z 15012KT 01/M02 A3021 RMK A01 T00111021  RH  079%=      5-min Rain = 0
KEN1 200527Z 15012KT 01/M02 A3021 RMK A01 T00121020  RH  079%=      5-min Rain = 0
KEN1 200528Z 15012KT 01/M02 A3021 RMK A01 T00121020  RH  079%=      5-min Rain = 0
KEN1 200529Z 15012KT 01/M02 A3021 RMK A01 T00131020  RH  079%=      5-min Rain = 0
KEN1 200530Z 15012KT 01/M02 A3021 RMK A01 T00121020  RH  079%=      5-min Rain = 0
KEN1 200531Z 15012KT 01/M02 A3021 RMK A01 T00131020  RH  079%=      5-min Rain = 0
KEN1 200532Z 15012KT 01/M02 A3022 RMK A01 T00131020  RH  079%=      5-min Rain = 0
KEN1 200533Z 15012KT 01/M02 A3021 RMK A01 T00121020  RH  079%=      5-min Rain = 0
KEN1 200534Z 15012KT 01/M02 A3021 RMK A01 T00121021  RH  079%=      5-min Rain = 0
KEN1 200535Z 15013KT 01/M02 A3021 RMK A01 T00121021  RH  079%=      5-min Rain = 0
KEN1 200536Z 15012KT 01/M02 A3021 RMK A01 T00111021  RH  079%=      5-min Rain = 0
KEN1 200537Z 15012KT 01/M02 A3021 RMK A01 T00111021  RH  079%=      5-min Rain = 0
KEN1 200538Z 15012KT 01/M02 A3021 RMK A01 T00111021  RH  079%=      5-min Rain = 0
KEN1 200539Z 15012KT 01/M02 A3021 RMK A01 T00111021  RH  079%=      5-min Rain = 0
KEN1 200540Z 15012KT 01/M02 A3021 RMK A01 T00111021  RH  079%=      5-min Rain = 0
KEN1 200541Z 15012KT 01/M02 A3021 RMK A01 T00111021  RH  079%=      5-min Rain = 0
KEN1 200542Z 15012KT 01/M02 A3021 RMK A01 T00111022  RH  079%=      5-min Rain = 0
KEN1 200543Z 15013KT 01/M02 A3021 RMK A01 T00111022  RH  079%=      5-min Rain = 0
KEN1 200544Z 15013KT 01/M02 A3021 RMK A01 T00111022  RH  079%=      5-min Rain = 0
KEN1 200545Z 15013KT 01/M02 A3021 RMK A01 T00111022  RH  079%=      5-min Rain = 0
KEN1 200546Z 15013KT 01/M02 A3021 RMK A01 T00111022  RH  078%=      5-min Rain = 0
KEN1 200547Z 15013KT 01/M02 A3021 RMK A01 T00111022  RH  078%=      5-min Rain = 0
KEN1 200548Z 15013KT 01/M02 A3021 RMK A01 T00111023  RH  078%=      5-min Rain = 0
KEN1 200549Z 15013KT 01/M02 A3021 RMK A01 T00101024  RH  078%=      5-min Rain = 0
KEN1 200550Z 15013KT 01/M02 A3021 RMK A01 T00111024  RH  078%=      5-min Rain = 0
KEN1 200551Z 15013KT 01/M02 A3021 RMK A01 T00101024  RH  078%=      5-min Rain = 0
KEN1 200552Z 15013KT 01/M02 A3021 RMK A01 T00101024  RH  078%=      5-min Rain = 0
KEN1 200553Z 15013KT 01/M02 A3021 RMK A01 T00101023  RH  078%=      5-min Rain = 0
KEN1 200554Z 15014KT 01/M02 A3021 RMK A01 T00101023  RH  078%=      5-min Rain = 0
KEN1 200555Z 15014KT 01/M02 A3021 RMK A01 T00101024  RH  078%=      5-min Rain = 0
KEN1 200556Z 15012KT 01/M02 A3021 RMK A01 T00111024  RH  078%=      5-min Rain = 0
KEN1 200557Z 15013KT 01/M03 A3021 RMK A01 T00111025  RH  077%=      5-min Rain = 0
KEN1 200558Z 15012KT 01/M03 A3021 RMK A01 T00111025  RH  077%=      5-min Rain = 0
KEN1 200559Z 15013KT 01/M03 A3021 RMK A01 T00111026  RH  077%=      5-min Rain = 0

Page generated in 0.0813 seconds.